Time,TemperatureF,DewpointF,PressureIn,WindDirection,WindDirectionDegrees,WindSpeedMPH,WindSpeedGustMPH,Humidity,HourlyPrecipIn,Conditions,Clouds,dailyrainin,SoftwareType,DateUTC
2013-06-17 00:00:00,79.9,68.8,30.12,North,0,0.0,0.0,69,0.00,,FEW047,0.16,VWS V14.01,2013-06-17 04:00:00,
2013-06-17 00:01:00,79.5,68.5,30.12,North,0,0.0,0.0,69,0.00,,FEW047,0.16,VWS V14.01,2013-06-17 04:01:00,
2013-06-17 00:03:00,79.3,68.7,30.12,North,0,0.0,0.0,70,0.00,,FEW047,0.00,VWS V14.01,2013-06-17 04:03:00,
2013-06-17 00:04:00,79.2,68.5,30.12,North,0,0.0,0.0,70,0.00,,FEW047,0.00,VWS V14.01,2013-06-17 04:04:00,
2013-06-17 00:06:00,79.0,68.8,30.12,North,0,0.0,0.0,71,0.00,,FEW047,0.00,VWS V14.01,2013-06-17 04:06:00,
2013-06-17 00:07:00,78.8,69.0,30.12,North,0,0.0,0.0,72,0.00,,FEW047,0.00,VWS V14.01,2013-06-17 04:07:00,
2013-06-17 00:08:00,78.8,69.0,30.12,North,0,0.0,0.0,72,0.00,,FEW047,0.00,VWS V14.01,2013-06-17 04:08:00,
2013-06-17 00:09:00,78.8,69.4,30.12,North,0,0.0,0.0,73,0.00,,FEW047,0.00,VWS V14.01,2013-06-17 04:09:00,
2013-06-17 00:12:00,78.4,69.5,30.12,North,0,0.0,0.0,74,0.00,,FEW047,0.00,VWS V14.01,2013-06-17 04:12:00,
2013-06-17 00:14:00,78.4,69.5,30.12,North,0,0.0,0.0,74,0.00,,FEW047,0.00,VWS V14.01,2013-06-17 04:14:00,
2013-06-17 00:16:00,78.3,69.7,30.12,North,0,0.0,0.0,75,0.00,,FEW047,0.00,VWS V14.01,2013-06-17 04:16:00,
2013-06-17 00:20:00,77.9,69.3,30.12,North,0,0.0,0.0,75,0.00,,FEW047,0.00,VWS V14.01,2013-06-17 04:20:00,
2013-06-17 00:22:00,77.9,69.7,30.12,North,0,0.0,0.0,76,0.00,,FEW047,0.00,VWS V14.01,2013-06-17 04:22:00,
2013-06-17 00:23:00,77.7,69.6,30.12,North,0,0.0,0.0,76,0.00,,FEW047,0.00,VWS V14.01,2013-06-17 04:23:00,
2013-06-17 00:24:00,77.7,69.6,30.12,North,0,0.0,0.0,76,0.00,,FEW047,0.00,VWS V14.01,2013-06-17 04:24:00,
2013-06-17 00:26:00,77.7,69.9,30.12,North,0,0.0,0.0,77,0.00,,FEW047,0.00,VWS V14.01,2013-06-17 04:26:00,
2013-06-17 00:29:00,77.7,69.9,30.09,North,0,0.0,0.0,77,0.00,,FEW047,0.00,VWS V14.01,2013-06-17 04:29:00,
2013-06-17 00:30:00,77.7,69.9,30.09,North,0,0.0,0.0,77,0.00,,FEW047,0.00,VWS V14.01,2013-06-17 04:30:00,
2013-06-17 00:31:00,77.5,69.8,30.09,North,0,0.0,0.0,77,0.00,,FEW047,0.00,VWS V14.01,2013-06-17 04:31:00,
2013-06-17 00:34:00,77.5,70.1,30.09,North,0,0.0,0.0,78,0.00,,FEW047,0.00,VWS V14.01,2013-06-17 04:34:00,
2013-06-17 00:35:00,77.4,70.0,30.09,North,0,0.0,0.0,78,0.00,,FEW047,0.00,VWS V14.01,2013-06-17 04:35:00,
2013-06-17 00:36:00,77.4,70.0,30.09,North,0,0.0,0.0,78,0.00,,FEW047,0.00,VWS V14.01,2013-06-17 04:36:00,
2013-06-17 00:37:00,77.4,70.0,30.09,North,0,0.0,0.0,78,0.00,,FEW047,0.00,VWS V14.01,2013-06-17 04:37:00,
2013-06-17 00:40:00,77.2,69.8,30.09,North,0,0.0,0.0,78,0.00,,FEW047,0.00,VWS V14.01,2013-06-17 04:40:00,
2013-06-17 00:41:00,77.2,69.8,30.09,North,0,0.0,0.0,78,0.00,,FEW047,0.00,VWS V14.01,2013-06-17 04:41:00,
2013-06-17 00:42:00,77.2,69.8,30.09,North,0,0.0,0.0,78,0.00,,FEW047,0.00,VWS V14.01,2013-06-17 04:42:00,
2013-06-17 00:45:00,77.0,69.6,30.09,North,0,0.0,0.0,78,0.00,,FEW047,0.00,VWS V14.01,2013-06-17 04:45:00,
2013-06-17 00:46:00,77.0,70.0,30.09,North,0,0.0,0.0,79,0.00,,FEW047,0.00,VWS V14.01,2013-06-17 04:46:00,
2013-06-17 00:48:00,77.0,70.0,30.09,North,0,0.0,0.0,79,0.00,,FEW047,0.00,VWS V14.01,2013-06-17 04:48:00,
2013-06-17 00:50:00,77.0,70.0,30.09,North,0,0.0,0.0,79,0.00,,FEW047,0.00,VWS V14.01,2013-06-17 04:50:00,
2013-06-17 00:52:00,77.0,70.0,30.09,North,0,0.0,0.0,79,0.00,,FEW047,0.00,VWS V14.01,2013-06-17 04:52:00,
2013-06-17 00:54:00,76.8,70.2,30.09,North,0,0.0,0.0,80,0.00,,FEW047,0.00,VWS V14.01,2013-06-17 04:54:00,
2013-06-17 00:58:00,76.8,70.2,30.09,North,0,0.0,0.0,80,0.00,,FEW047,0.00,VWS V14.01,2013-06-17 04:58:00,
2013-06-17 00:59:00,76.8,70.2,30.09,North,0,0.0,0.0,80,0.00,,FEW047,0.00,VWS V14.01,2013-06-17 04:59:00,
2013-06-17 01:00:00,76.8,70.2,30.09,North,0,0.0,0.0,80,0.00,,FEW047,0.00,VWS V14.01,2013-06-17 05:00:00,
2013-06-17 01:04:00,76.8,70.2,30.09,North,0,0.0,0.0,80,0.00,,FEW047,0.00,VWS V14.01,2013-06-17 05:04:00,
2013-06-17 01:05:00,76.8,70.2,30.09,North,0,0.0,0.0,80,0.00,,FEW047,0.00,VWS V14.01,2013-06-17 05:05:00,
2013-06-17 01:10:00,77.0,70.7,30.09,North,0,0.0,0.0,81,0.00,,FEW047,0.00,VWS V14.01,2013-06-17 05:10:00,
2013-06-17 01:11:00,77.0,70.7,30.09,North,0,0.0,0.0,81,0.00,,FEW047,0.00,VWS V14.01,2013-06-17 05:11:00,
2013-06-17 01:12:00,77.2,70.9,30.09,North,0,0.0,0.0,81,0.00,,FEW047,0.00,VWS V14.01,2013-06-17 05:12:00,
2013-06-17 01:13:00,77.2,70.9,30.09,North,0,0.0,0.0,81,0.00,,FEW047,0.00,VWS V14.01,2013-06-17 05:13:00,
2013-06-17 01:16:00,77.4,71.4,30.09,North,0,0.0,0.0,82,0.00,,FEW047,0.00,VWS V14.01,2013-06-17 05:16:00,
2013-06-17 01:17:00,77.4,71.4,30.09,North,0,0.0,0.0,82,0.00,,FEW047,0.00,VWS V14.01,2013-06-17 05:17:00,
2013-06-17 01:18:00,77.4,71.4,30.09,North,0,0.0,0.0,82,0.00,,FEW047,0.00,VWS V14.01,2013-06-17 05:18:00,
2013-06-17 01:21:00,77.4,71.4,30.09,North,0,0.0,0.0,82,0.00,,FEW047,0.00,VWS V14.01,2013-06-17 05:21:00,
2013-06-17 01:23:00,77.4,71.4,30.09,North,0,0.0,0.0,82,0.00,,FEW047,0.00,VWS V14.01,2013-06-17 05:23:00,
2013-06-17 01:24:00,77.4,71.4,30.09,North,0,0.0,0.0,82,0.00,,FEW047,0.00,VWS V14.01,2013-06-17 05:24:00,
2013-06-17 01:27:00,77.4,71.1,30.09,North,0,0.0,0.0,81,0.00,,FEW047,0.00,VWS V14.01,2013-06-17 05:27:00,
2013-06-17 01:29:00,77.4,71.1,30.09,North,0,0.0,0.0,81,0.00,,FEW047,0.00,VWS V14.01,2013-06-17 05:29:00,
2013-06-17 01:30:00,77.4,71.1,30.09,North,0,0.0,0.0,81,0.00,,FEW047,0.00,VWS V14.01,2013-06-17 05:30:00,
2013-06-17 01:34:00,77.5,71.2,30.09,North,0,0.0,0.0,81,0.00,,FEW047,0.00,VWS V14.01,2013-06-17 05:34:00,
2013-06-17 01:35:00,77.5,71.2,30.09,North,0,0.0,0.0,81,0.00,,FEW047,0.00,VWS V14.01,2013-06-17 05:35:00,
2013-06-17 01:36:00,77.5,71.2,30.09,North,0,0.0,0.0,81,0.00,,FEW047,0.00,VWS V14.01,2013-06-17 05:36:00,
2013-06-17 01:37:00,77.5,71.2,30.09,North,0,0.0,0.0,81,0.00,,FEW047,0.00,VWS V14.01,2013-06-17 05:37:00,
2013-06-17 01:39:00,77.4,71.1,30.09,North,0,0.0,0.0,81,0.00,,FEW047,0.00,VWS V14.01,2013-06-17 05:39:00,
2013-06-17 01:41:00,77.4,71.1,30.09,North,0,0.0,0.0,81,0.00,,FEW047,0.00,VWS V14.01,2013-06-17 05:41:00,
2013-06-17 01:42:00,77.5,71.2,30.09,North,0,0.0,0.0,81,0.00,,FEW047,0.00,VWS V14.01,2013-06-17 05:42:00,
2013-06-17 01:43:00,77.5,71.2,30.09,North,0,0.0,0.0,81,0.00,,FEW047,0.00,VWS V14.01,2013-06-17 05:43:00,
2013-06-17 01:45:00,77.5,71.2,30.09,North,0,0.0,0.0,81,0.00,,FEW047,0.00,VWS V14.01,2013-06-17 05:45:00,
2013-06-17 01:47:00,77.5,71.2,30.09,North,0,0.0,0.0,81,0.00,,FEW047,0.00,VWS V14.01,2013-06-17 05:47:00,
2013-06-17 01:50:00,77.7,71.8,30.09,North,0,0.0,0.0,82,0.00,,FEW047,0.00,VWS V14.01,2013-06-17 05:50:00,
2013-06-17 01:51:00,77.7,71.8,30.09,North,0,0.0,0.0,82,0.00,,FEW047,0.00,VWS V14.01,2013-06-17 05:51:00,
2013-06-17 01:53:00,77.7,71.8,30.09,North,0,0.0,0.0,82,0.00,,FEW047,0.00,VWS V14.01,2013-06-17 05:53:00,
2013-06-17 01:55:00,77.7,71.8,30.09,North,0,0.0,0.0,82,0.00,,FEW047,0.00,VWS V14.01,2013-06-17 05:55:00,
2013-06-17 01:59:00,77.7,71.8,30.09,North,0,0.0,0.0,82,0.00,,FEW047,0.00,VWS V14.01,2013-06-17 05:59:00,
2013-06-17 02:00:00,77.7,71.8,30.09,North,0,0.0,0.0,82,0.00,,FEW047,0.00,VWS V14.01,2013-06-17 06:00:00,
2013-06-17 02:04:00,77.7,71.8,30.09,North,0,0.0,0.0,82,0.00,,FEW047,0.00,VWS V14.01,2013-06-17 06:04:00,
2013-06-17 02:05:00,77.7,71.8,30.09,North,0,0.0,0.0,82,0.00,,FEW047,0.00,VWS V14.01,2013-06-17 06:05:00,
2013-06-17 02:08:00,77.7,71.4,30.09,North,0,0.0,0.0,81,0.00,,FEW047,0.00,VWS V14.01,2013-06-17 06:08:00,
2013-06-17 02:10:00,77.7,71.4,30.09,North,0,0.0,0.0,81,0.00,,FEW047,0.00,VWS V14.01,2013-06-17 06:10:00,
2013-06-17 02:12:00,77.9,71.6,30.09,North,0,0.0,0.0,81,0.00,,FEW047,0.00,VWS V14.01,2013-06-17 06:12:00,
2013-06-17 02:13:00,77.9,71.6,30.09,North,0,0.0,0.0,81,0.00,,FEW047,0.00,VWS V14.01,2013-06-17 06:13:00,
2013-06-17 02:15:00,77.9,71.6,30.06,North,0,0.0,0.0,81,0.00,,FEW047,0.00,VWS V14.01,2013-06-17 06:15:00,
2013-06-17 02:18:00,77.9,71.6,30.06,North,0,0.0,0.0,81,0.00,,FEW047,0.00,VWS V14.01,2013-06-17 06:18:00,
2013-06-17 02:20:00,77.9,71.6,30.06,North,0,0.0,0.0,81,0.00,,FEW047,0.00,VWS V14.01,2013-06-17 06:20:00,
2013-06-17 02:21:00,77.9,71.6,30.06,North,0,0.0,0.0,81,0.00,,FEW047,0.00,VWS V14.01,2013-06-17 06:21:00,
2013-06-17 02:22:00,77.9,71.6,30.06,North,0,0.0,0.0,81,0.00,,FEW047,0.00,VWS V14.01,2013-06-17 06:22:00,
2013-06-17 02:25:00,77.9,71.6,30.06,North,0,0.0,0.0,81,0.00,,FEW047,0.00,VWS V14.01,2013-06-17 06:25:00,
2013-06-17 02:26:00,77.9,71.6,30.06,North,0,0.0,0.0,81,0.00,,FEW047,0.00,VWS V14.01,2013-06-17 06:26:00,
2013-06-17 02:27:00,77.9,71.6,30.06,North,0,0.0,0.0,81,0.00,,FEW047,0.00,VWS V14.01,2013-06-17 06:27:00,
2013-06-17 02:29:00,77.9,71.6,30.06,North,0,0.0,0.0,81,0.00,,FEW047,0.00,VWS V14.01,2013-06-17 06:29:00,
2013-06-17 02:34:00,77.9,71.2,30.06,North,0,0.0,0.0,80,0.00,,FEW047,0.00,VWS V14.01,2013-06-17 06:34:00,
2013-06-17 02:35:00,77.9,71.2,30.06,North,0,0.0,0.0,80,0.00,,FEW047,0.00,VWS V14.01,2013-06-17 06:35:00,
2013-06-17 02:36:00,77.9,71.2,30.06,North,0,0.0,0.0,80,0.00,,FEW047,0.00,VWS V14.01,2013-06-17 06:36:00,
2013-06-17 02:39:00,77.9,71.2,30.06,North,0,0.0,0.0,80,0.00,,FEW047,0.00,VWS V14.01,2013-06-17 06:39:00,
2013-06-17 02:40:00,77.9,71.2,30.06,North,0,0.0,0.0,80,0.00,,FEW047,0.00,VWS V14.01,2013-06-17 06:40:00,
2013-06-17 02:41:00,77.9,71.2,30.06,North,0,0.0,0.0,80,0.00,,FEW047,0.00,VWS V14.01,2013-06-17 06:41:00,
2013-06-17 02:42:00,77.9,71.2,30.06,North,0,0.0,0.0,80,0.00,,FEW047,0.00,VWS V14.01,2013-06-17 06:42:00,
2013-06-17 02:43:00,77.9,71.2,30.06,North,0,0.0,0.0,80,0.00,,FEW047,0.00,VWS V14.01,2013-06-17 06:43:00,
2013-06-17 02:45:00,77.9,71.2,30.06,North,0,0.0,0.0,80,0.00,,FEW047,0.00,VWS V14.01,2013-06-17 06:45:00,
2013-06-17 02:47:00,77.9,71.2,30.06,North,0,0.0,0.0,80,0.00,,FEW047,0.00,VWS V14.01,2013-06-17 06:47:00,
2013-06-17 02:48:00,78.1,71.4,30.06,North,0,0.0,0.0,80,0.00,,FEW047,0.00,VWS V14.01,2013-06-17 06:48:00,
2013-06-17 02:49:00,77.9,71.2,30.06,North,0,0.0,0.0,80,0.00,,FEW047,0.00,VWS V14.01,2013-06-17 06:49:00,
2013-06-17 02:50:00,77.9,71.2,30.06,North,0,0.0,0.0,80,0.00,,FEW047,0.00,VWS V14.01,2013-06-17 06:50:00,
2013-06-17 02:54:00,77.9,71.6,30.06,North,0,0.0,0.0,81,0.00,,FEW047,0.00,VWS V14.01,2013-06-17 06:54:00,
2013-06-17 02:55:00,77.9,71.6,30.06,North,0,0.0,0.0,81,0.00,,FEW047,0.00,VWS V14.01,2013-06-17 06:55:00,
2013-06-17 02:56:00,77.9,71.2,30.06,North,0,0.0,0.0,80,0.00,,FEW047,0.00,VWS V14.01,2013-06-17 06:56:00,
2013-06-17 02:57:00,77.9,71.2,30.06,North,0,0.0,0.0,80,0.00,,FEW047,0.00,VWS V14.01,2013-06-17 06:57:00,
2013-06-17 03:00:00,77.9,71.2,30.06,North,0,0.0,0.0,80,0.00,,FEW047,0.00,VWS V14.01,2013-06-17 07:00:00,
2013-06-17 03:03:00,77.9,71.6,30.06,North,0,0.0,0.0,81,0.00,,OVC100,0.00,VWS V14.01,2013-06-17 07:03:00,
2013-06-17 03:04:00,77.9,71.6,30.06,North,0,0.0,0.0,81,0.00,,OVC100,0.00,VWS V14.01,2013-06-17 07:04:00,
2013-06-17 03:05:00,77.9,71.6,30.06,North,0,0.0,0.0,81,0.00,,OVC100,0.00,VWS V14.01,2013-06-17 07:05:00,
2013-06-17 03:06:00,77.9,71.6,30.06,North,0,0.0,0.0,81,0.00,,OVC100,0.00,VWS V14.01,2013-06-17 07:06:00,
2013-06-17 03:08:00,77.9,71.6,30.06,North,0,0.0,0.0,81,0.00,,OVC100,0.00,VWS V14.01,2013-06-17 07:08:00,
2013-06-17 03:09:00,77.9,71.6,30.06,North,0,0.0,0.0,81,0.00,,OVC100,0.00,VWS V14.01,2013-06-17 07:09:00,
2013-06-17 03:10:00,77.9,71.6,30.06,North,0,0.0,0.0,81,0.00,,OVC100,0.00,VWS V14.01,2013-06-17 07:10:00,
2013-06-17 03:14:00,77.9,71.6,30.06,North,0,0.0,0.0,81,0.00,,OVC100,0.00,VWS V14.01,2013-06-17 07:14:00,
2013-06-17 03:15:00,77.9,71.6,30.06,North,0,0.0,0.0,81,0.00,,OVC100,0.00,VWS V14.01,2013-06-17 07:15:00,
2013-06-17 03:19:00,77.7,71.4,30.06,North,0,0.0,0.0,81,0.00,,OVC100,0.00,VWS V14.01,2013-06-17 07:19:00,
2013-06-17 03:20:00,77.7,71.4,30.06,North,0,0.0,0.0,81,0.00,,OVC100,0.00,VWS V14.01,2013-06-17 07:20:00,
2013-06-17 03:23:00,77.7,71.4,30.06,North,0,0.0,0.0,81,0.00,,OVC100,0.00,VWS V14.01,2013-06-17 07:23:00,
2013-06-17 03:24:00,77.7,71.4,30.06,North,0,0.0,0.0,81,0.00,,OVC100,0.00,VWS V14.01,2013-06-17 07:24:00,
2013-06-17 03:26:00,77.7,71.4,30.06,North,0,0.0,0.0,81,0.00,,OVC100,0.00,VWS V14.01,2013-06-17 07:26:00,
2013-06-17 03:27:00,77.7,71.8,30.06,North,0,0.0,0.0,82,0.00,,OVC100,0.00,VWS V14.01,2013-06-17 07:27:00,
2013-06-17 03:30:00,77.7,71.8,30.06,North,0,0.0,0.0,82,0.00,,OVC100,0.00,VWS V14.01,2013-06-17 07:30:00,
2013-06-17 03:32:00,77.7,71.8,30.06,North,0,0.0,0.0,82,0.00,,OVC100,0.00,VWS V14.01,2013-06-17 07:32:00,
2013-06-17 03:33:00,77.7,71.8,30.06,North,0,0.0,0.0,82,0.00,,OVC100,0.00,VWS V14.01,2013-06-17 07:33:00,
2013-06-17 03:34:00,77.7,71.8,30.06,North,0,0.0,0.0,82,0.00,,OVC100,0.00,VWS V14.01,2013-06-17 07:34:00,
2013-06-17 03:35:00,77.7,71.8,30.06,North,0,0.0,0.0,82,0.00,,OVC100,0.00,VWS V14.01,2013-06-17 07:35:00,
2013-06-17 03:40:00,77.7,71.8,30.06,North,0,0.0,0.0,82,0.00,,OVC100,0.00,VWS V14.01,2013-06-17 07:40:00,
2013-06-17 03:42:00,77.5,71.6,30.06,North,0,0.0,0.0,82,0.00,,OVC100,0.00,VWS V14.01,2013-06-17 07:42:00,
2013-06-17 03:43:00,77.5,71.6,30.06,North,0,0.0,0.0,82,0.00,,OVC100,0.00,VWS V14.01,2013-06-17 07:43:00,
2013-06-17 03:44:00,77.5,71.6,30.06,North,0,0.0,0.0,82,0.00,,OVC100,0.00,VWS V14.01,2013-06-17 07:44:00,
2013-06-17 03:45:00,77.5,71.6,30.06,North,0,0.0,0.0,82,0.00,,OVC100,0.00,VWS V14.01,2013-06-17 07:45:00,
2013-06-17 03:49:00,77.5,71.6,30.06,North,0,0.0,0.0,82,0.00,,OVC100,0.00,VWS V14.01,2013-06-17 07:49:00,
2013-06-17 03:50:00,77.5,71.6,30.06,North,0,0.0,0.0,82,0.00,,OVC100,0.00,VWS V14.01,2013-06-17 07:50:00,
2013-06-17 03:52:00,77.5,71.6,30.06,North,0,0.0,0.0,82,0.00,,OVC100,0.00,VWS V14.01,2013-06-17 07:52:00,
2013-06-17 03:55:00,77.4,71.4,30.06,North,0,0.0,0.0,82,0.00,,OVC100,0.00,VWS V14.01,2013-06-17 07:55:00,
2013-06-17 03:57:00,77.4,71.4,30.06,North,0,0.0,0.0,82,0.00,,OVC100,0.00,VWS V14.01,2013-06-17 07:57:00,
2013-06-17 03:59:00,77.4,71.4,30.03,North,0,0.0,0.0,82,0.00,,OVC100,0.00,VWS V14.01,2013-06-17 07:59:00,
2013-06-17 04:02:00,77.2,71.3,30.03,North,0,0.0,0.0,82,0.00,,OVC100,0.00,VWS V14.01,2013-06-17 08:02:00,
2013-06-17 04:03:00,77.2,71.3,30.03,North,0,0.0,0.0,82,0.00,,OVC110,0.00,VWS V14.01,2013-06-17 08:03:00,
2013-06-17 04:04:00,77.2,71.3,30.03,North,0,0.0,0.0,82,0.00,,OVC110,0.00,VWS V14.01,2013-06-17 08:04:00,
2013-06-17 04:07:00,77.2,71.3,30.03,North,0,0.0,0.0,82,0.00,,OVC110,0.00,VWS V14.01,2013-06-17 08:07:00,
2013-06-17 04:09:00,77.2,71.3,30.03,North,0,0.0,0.0,82,0.00,,OVC110,0.00,VWS V14.01,2013-06-17 08:09:00,
2013-06-17 04:11:00,77.0,71.1,30.03,North,0,0.0,0.0,82,0.00,,OVC110,0.00,VWS V14.01,2013-06-17 08:11:00,
2013-06-17 04:12:00,77.0,71.1,30.03,North,0,0.0,0.0,82,0.00,,OVC110,0.00,VWS V14.01,2013-06-17 08:12:00,
2013-06-17 04:15:00,77.0,71.1,30.03,North,0,0.0,0.0,82,0.00,,OVC110,0.00,VWS V14.01,2013-06-17 08:15:00,
2013-06-17 04:16:00,77.0,71.1,30.03,North,0,0.0,0.0,82,0.00,,OVC110,0.00,VWS V14.01,2013-06-17 08:16:00,
2013-06-17 04:21:00,77.0,71.4,30.03,North,0,0.0,0.0,83,0.00,,OVC110,0.00,VWS V14.01,2013-06-17 08:21:00,
2013-06-17 04:22:00,77.0,71.4,30.03,North,0,0.0,0.0,83,0.00,,OVC110,0.00,VWS V14.01,2013-06-17 08:22:00,
2013-06-17 04:24:00,77.0,71.4,30.03,North,0,0.0,0.0,83,0.00,,OVC110,0.00,VWS V14.01,2013-06-17 08:24:00,
2013-06-17 04:26:00,77.0,71.4,30.03,North,0,0.0,0.0,83,0.00,,OVC110,0.00,VWS V14.01,2013-06-17 08:26:00,
2013-06-17 04:27:00,77.0,71.4,30.03,North,0,0.0,0.0,83,0.00,,OVC110,0.00,VWS V14.01,2013-06-17 08:27:00,
2013-06-17 04:29:00,77.0,71.4,30.03,North,0,0.0,0.0,83,0.00,,OVC110,0.00,VWS V14.01,2013-06-17 08:29:00,
2013-06-17 04:31:00,77.0,71.4,30.03,North,0,0.0,0.0,83,0.00,,OVC110,0.00,VWS V14.01,2013-06-17 08:31:00,
2013-06-17 04:36:00,77.0,71.4,30.03,North,0,0.0,0.0,83,0.00,,OVC110,0.00,VWS V14.01,2013-06-17 08:36:00,
2013-06-17 04:37:00,77.0,71.4,30.03,North,0,0.0,0.0,83,0.00,,OVC110,0.00,VWS V14.01,2013-06-17 08:37:00,
2013-06-17 04:41:00,77.0,71.8,30.03,North,0,0.0,0.0,84,0.00,,OVC110,0.00,VWS V14.01,2013-06-17 08:41:00,
2013-06-17 04:44:00,77.0,71.8,30.03,North,0,0.0,0.0,84,0.00,,OVC110,0.00,VWS V14.01,2013-06-17 08:44:00,
2013-06-17 04:45:00,77.0,71.8,30.03,North,0,0.0,0.0,84,0.00,,OVC110,0.00,VWS V14.01,2013-06-17 08:45:00,
2013-06-17 04:49:00,77.0,71.8,30.03,North,0,0.0,0.0,84,0.00,,OVC110,0.00,VWS V14.01,2013-06-17 08:49:00,
2013-06-17 04:52:00,77.0,71.8,30.03,North,0,0.0,0.0,84,0.00,,OVC110,0.00,VWS V14.01,2013-06-17 08:52:00,
2013-06-17 04:53:00,76.8,71.6,30.03,North,0,0.0,0.0,84,0.00,,OVC110,0.00,VWS V14.01,2013-06-17 08:53:00,
2013-06-17 04:54:00,76.8,71.6,30.03,North,0,0.0,0.0,84,0.00,,OVC110,0.00,VWS V14.01,2013-06-17 08:54:00,
2013-06-17 04:55:00,76.8,71.6,30.03,North,0,0.0,0.0,84,0.00,,OVC110,0.00,VWS V14.01,2013-06-17 08:55:00,
2013-06-17 04:57:00,77.0,71.8,30.03,North,0,0.0,0.0,84,0.00,,OVC110,0.00,VWS V14.01,2013-06-17 08:57:00,
2013-06-17 04:59:00,77.0,71.8,30.03,North,0,0.0,0.0,84,0.00,,OVC110,0.00,VWS V14.01,2013-06-17 08:59:00,
2013-06-17 05:01:00,77.0,71.8,30.03,North,0,0.0,0.0,84,0.00,,OVC110,0.00,VWS V14.01,2013-06-17 09:01:00,
2013-06-17 05:03:00,77.0,71.8,30.03,North,0,0.0,0.0,84,0.00,,CLR,0.00,VWS V14.01,2013-06-17 09:03:00,
2013-06-17 05:05:00,76.8,72.0,30.03,North,0,0.0,0.0,85,0.00,,CLR,0.00,VWS V14.01,2013-06-17 09:05:00,
2013-06-17 05:06:00,76.8,72.0,30.03,North,0,0.0,0.0,85,0.00,,CLR,0.00,VWS V14.01,2013-06-17 09:06:00,
2013-06-17 05:07:00,76.8,72.0,30.03,North,0,0.0,0.0,85,0.00,,CLR,0.00,VWS V14.01,2013-06-17 09:07:00,
2013-06-17 05:08:00,76.8,72.0,30.03,North,0,0.0,0.0,85,0.00,,CLR,0.00,VWS V14.01,2013-06-17 09:08:00,
2013-06-17 05:10:00,76.8,72.0,30.03,North,0,0.0,0.0,85,0.00,,CLR,0.00,VWS V14.01,2013-06-17 09:10:00,
2013-06-17 05:12:00,76.8,72.0,30.03,North,0,0.0,0.0,85,0.00,,CLR,0.00,VWS V14.01,2013-06-17 09:12:00,
2013-06-17 05:13:00,76.8,72.0,30.03,North,0,0.0,0.0,85,0.00,,CLR,0.00,VWS V14.01,2013-06-17 09:13:00,
2013-06-17 05:14:00,77.0,72.2,30.03,North,0,0.0,0.0,85,0.00,,CLR,0.00,VWS V14.01,2013-06-17 09:14:00,
2013-06-17 05:16:00,77.0,72.2,30.03,North,0,0.0,0.0,85,0.00,,CLR,0.00,VWS V14.01,2013-06-17 09:16:00,
2013-06-17 05:18:00,77.0,72.2,30.03,North,0,0.0,0.0,85,0.00,,CLR,0.00,VWS V14.01,2013-06-17 09:18:00,
2013-06-17 05:20:00,77.0,72.2,30.03,North,0,0.0,0.0,85,0.00,,CLR,0.00,VWS V14.01,2013-06-17 09:20:00,
2013-06-17 05:23:00,77.0,72.2,30.03,North,0,0.0,0.0,85,0.00,,CLR,0.00,VWS V14.01,2013-06-17 09:23:00,
2013-06-17 05:25:00,77.0,72.2,30.03,North,0,0.0,0.0,85,0.00,,CLR,0.00,VWS V14.01,2013-06-17 09:25:00,
2013-06-17 05:27:00,77.0,72.2,30.03,North,0,0.0,0.0,85,0.00,,CLR,0.00,VWS V14.01,2013-06-17 09:27:00,
2013-06-17 05:29:00,76.8,72.0,30.03,North,0,0.0,0.0,85,0.00,,CLR,0.00,VWS V14.01,2013-06-17 09:29:00,
2013-06-17 05:31:00,76.8,72.0,30.03,North,0,0.0,0.0,85,0.00,,CLR,0.00,VWS V14.01,2013-06-17 09:31:00,
2013-06-17 05:33:00,76.8,72.3,30.03,North,0,0.0,0.0,86,0.00,,CLR,0.00,VWS V14.01,2013-06-17 09:33:00,
2013-06-17 05:34:00,76.8,72.3,30.03,North,0,0.0,0.0,86,0.00,,CLR,0.00,VWS V14.01,2013-06-17 09:34:00,
2013-06-17 05:37:00,76.8,72.3,30.03,North,0,0.0,0.0,86,0.00,,CLR,0.00,VWS V14.01,2013-06-17 09:37:00,
2013-06-17 05:38:00,76.8,72.3,30.03,North,0,0.0,0.0,86,0.00,,CLR,0.00,VWS V14.01,2013-06-17 09:38:00,
2013-06-17 05:40:00,76.8,72.3,30.03,North,0,0.0,0.0,86,0.00,,CLR,0.00,VWS V14.01,2013-06-17 09:40:00,
2013-06-17 05:42:00,76.8,72.3,30.03,North,0,0.0,0.0,86,0.00,,CLR,0.00,VWS V14.01,2013-06-17 09:42:00,
2013-06-17 05:45:00,76.8,72.3,30.03,North,0,0.0,0.0,86,0.00,,CLR,0.00,VWS V14.01,2013-06-17 09:45:00,
2013-06-17 05:46:00,76.8,72.3,30.03,North,0,0.0,0.0,86,0.00,,CLR,0.00,VWS V14.01,2013-06-17 09:46:00,
2013-06-17 05:48:00,76.8,72.3,30.03,North,0,0.0,0.0,86,0.00,,CLR,0.00,VWS V14.01,2013-06-17 09:48:00,
2013-06-17 05:52:00,76.8,72.0,30.03,North,0,0.0,0.0,85,0.00,,CLR,0.00,VWS V14.01,2013-06-17 09:52:00,
2013-06-17 05:54:00,76.8,72.0,30.03,North,0,0.0,0.0,85,0.00,,CLR,0.00,VWS V14.01,2013-06-17 09:54:00,
2013-06-17 05:55:00,76.6,71.8,30.03,North,0,0.0,0.0,85,0.00,,CLR,0.00,VWS V14.01,2013-06-17 09:55:00,
2013-06-17 05:56:00,76.6,71.8,30.03,North,0,0.0,0.0,85,0.00,,CLR,0.00,VWS V14.01,2013-06-17 09:56:00,
2013-06-17 05:57:00,76.6,71.8,30.03,North,0,0.0,0.0,85,0.00,,CLR,0.00,VWS V14.01,2013-06-17 09:57:00,
2013-06-17 06:00:00,76.6,71.8,30.06,North,0,0.0,0.0,85,0.00,,CLR,0.00,VWS V14.01,2013-06-17 10:00:00,
2013-06-17 06:02:00,76.6,71.8,30.06,North,0,0.0,0.0,85,0.00,,CLR,0.00,VWS V14.01,2013-06-17 10:02:00,
2013-06-17 06:03:00,76.6,71.8,30.06,North,0,0.0,0.0,85,0.00,,CLR,0.00,VWS V14.01,2013-06-17 10:03:00,
2013-06-17 06:04:00,76.6,71.8,30.06,North,0,0.0,0.0,85,0.00,,CLR,0.00,VWS V14.01,2013-06-17 10:04:00,
2013-06-17 06:06:00,76.6,71.8,30.06,North,0,0.0,0.0,85,0.00,,CLR,0.00,VWS V14.01,2013-06-17 10:06:00,
2013-06-17 06:08:00,76.6,71.8,30.06,North,0,0.0,0.0,85,0.00,,CLR,0.00,VWS V14.01,2013-06-17 10:08:00,
2013-06-17 06:09:00,76.6,71.8,30.06,North,0,0.0,0.0,85,0.00,,CLR,0.00,VWS V14.01,2013-06-17 10:09:00,
2013-06-17 06:10:00,76.6,71.8,30.06,North,0,0.0,0.0,85,0.00,,CLR,0.00,VWS V14.01,2013-06-17 10:10:00,
2013-06-17 06:12:00,76.6,71.8,30.06,North,0,0.0,0.0,85,0.00,,CLR,0.00,VWS V14.01,2013-06-17 10:12:00,
2013-06-17 06:13:00,76.6,71.8,30.06,North,0,0.0,0.0,85,0.00,,CLR,0.00,VWS V14.01,2013-06-17 10:13:00,
2013-06-17 06:16:00,76.6,71.8,30.06,North,0,0.0,0.0,85,0.00,,CLR,0.00,VWS V14.01,2013-06-17 10:16:00,
2013-06-17 06:17:00,76.6,71.8,30.06,North,0,0.0,0.0,85,0.00,,CLR,0.00,VWS V14.01,2013-06-17 10:17:00,
2013-06-17 06:19:00,76.6,71.8,30.06,North,0,0.0,0.0,85,0.00,,CLR,0.00,VWS V14.01,2013-06-17 10:19:00,
2013-06-17 06:21:00,76.6,71.8,30.06,North,0,0.0,0.0,85,0.00,,CLR,0.00,VWS V14.01,2013-06-17 10:21:00,
2013-06-17 06:24:00,76.6,71.8,30.06,North,0,0.0,0.0,85,0.00,,CLR,0.00,VWS V14.01,2013-06-17 10:24:00,
2013-06-17 06:25:00,76.6,71.8,30.06,North,0,0.0,0.0,85,0.00,,CLR,0.00,VWS V14.01,2013-06-17 10:25:00,
2013-06-17 06:26:00,76.6,71.8,30.06,North,0,0.0,0.0,85,0.00,,CLR,0.00,VWS V14.01,2013-06-17 10:26:00,
2013-06-17 06:27:00,76.6,71.8,30.06,North,0,0.0,0.0,85,0.00,,CLR,0.00,VWS V14.01,2013-06-17 10:27:00,
2013-06-17 06:29:00,76.6,71.8,30.06,North,0,0.0,0.0,85,0.00,,CLR,0.00,VWS V14.01,2013-06-17 10:29:00,
2013-06-17 06:31:00,76.6,71.8,30.06,North,0,0.0,0.0,85,0.00,,CLR,0.00,VWS V14.01,2013-06-17 10:31:00,
2013-06-17 06:32:00,76.6,71.8,30.06,North,0,0.0,0.0,85,0.00,,CLR,0.00,VWS V14.01,2013-06-17 10:32:00,
2013-06-17 06:34:00,76.6,71.8,30.06,North,0,0.0,0.0,85,0.00,,CLR,0.00,VWS V14.01,2013-06-17 10:34:00,
2013-06-17 06:36:00,76.6,71.8,30.06,North,0,0.0,0.0,85,0.00,,CLR,0.00,VWS V14.01,2013-06-17 10:36:00,
2013-06-17 06:39:00,76.5,71.6,30.06,North,0,0.0,0.0,85,0.00,,CLR,0.00,VWS V14.01,2013-06-17 10:39:00,
2013-06-17 06:43:00,76.5,71.6,30.06,North,0,0.0,0.0,85,0.01,,CLR,0.01,VWS V14.01,2013-06-17 10:43:00,
2013-06-17 06:44:00,76.5,71.6,30.06,North,0,0.0,0.0,85,0.01,,CLR,0.01,VWS V14.01,2013-06-17 10:44:00,
2013-06-17 06:45:00,76.5,71.6,30.06,North,0,0.0,0.0,85,0.01,,CLR,0.01,VWS V14.01,2013-06-17 10:45:00,
2013-06-17 06:49:00,76.5,71.6,30.06,North,0,0.0,0.0,85,0.01,,CLR,0.01,VWS V14.01,2013-06-17 10:49:00,
2013-06-17 06:52:00,76.5,71.6,30.06,North,0,0.0,0.0,85,0.01,,CLR,0.01,VWS V14.01,2013-06-17 10:52:00,
2013-06-17 06:53:00,76.5,71.6,30.06,North,0,0.0,0.0,85,0.01,,CLR,0.01,VWS V14.01,2013-06-17 10:53:00,
2013-06-17 06:54:00,76.5,71.6,30.06,North,0,0.0,0.0,85,0.01,,CLR,0.01,VWS V14.01,2013-06-17 10:54:00,
2013-06-17 06:57:00,76.5,71.6,30.06,North,0,0.0,0.0,85,0.01,,CLR,0.01,VWS V14.01,2013-06-17 10:57:00,
2013-06-17 06:58:00,76.5,71.6,30.06,North,0,0.0,0.0,85,0.01,,CLR,0.01,VWS V14.01,2013-06-17 10:58:00,
2013-06-17 06:59:00,76.5,71.6,30.06,North,0,0.0,0.0,85,0.01,,CLR,0.01,VWS V14.01,2013-06-17 10:59:00,
2013-06-17 07:03:00,76.5,71.6,30.06,North,0,0.0,0.0,85,0.01,,CLR,0.01,VWS V14.01,2013-06-17 11:03:00,
2013-06-17 07:04:00,76.5,71.6,30.06,North,0,0.0,0.0,85,0.01,,CLR,0.01,VWS V14.01,2013-06-17 11:04:00,
2013-06-17 07:05:00,76.5,71.6,30.06,North,0,0.0,0.0,85,0.01,,CLR,0.01,VWS V14.01,2013-06-17 11:05:00,
2013-06-17 07:06:00,76.5,71.6,30.06,North,0,0.0,0.0,85,0.01,,CLR,0.01,VWS V14.01,2013-06-17 11:06:00,
2013-06-17 07:10:00,76.5,71.6,30.06,North,0,0.0,0.0,85,0.01,,CLR,0.01,VWS V14.01,2013-06-17 11:10:00,
2013-06-17 07:11:00,76.5,71.6,30.06,North,0,0.0,0.0,85,0.01,,CLR,0.01,VWS V14.01,2013-06-17 11:11:00,
2013-06-17 07:12:00,76.5,71.6,30.06,North,0,0.0,0.0,85,0.01,,CLR,0.01,VWS V14.01,2013-06-17 11:12:00,
2013-06-17 07:17:00,76.6,71.8,30.06,North,0,0.0,0.0,85,0.01,,CLR,0.01,VWS V14.01,2013-06-17 11:17:00,
2013-06-17 07:18:00,76.6,71.8,30.06,North,0,0.0,0.0,85,0.01,,CLR,0.01,VWS V14.01,2013-06-17 11:18:00,
2013-06-17 07:19:00,76.6,71.8,30.06,North,0,0.0,0.0,85,0.01,,CLR,0.01,VWS V14.01,2013-06-17 11:19:00,
2013-06-17 07:20:00,76.6,71.8,30.06,North,0,0.0,0.0,85,0.01,,CLR,0.01,VWS V14.01,2013-06-17 11:20:00,
2013-06-17 07:22:00,76.6,71.8,30.06,North,0,0.0,0.0,85,0.01,,CLR,0.01,VWS V14.01,2013-06-17 11:22:00,
2013-06-17 07:25:00,76.6,71.8,30.06,North,0,0.0,0.0,85,0.01,,CLR,0.01,VWS V14.01,2013-06-17 11:25:00,
2013-06-17 07:26:00,76.6,71.8,30.06,North,0,0.0,0.0,85,0.01,,CLR,0.01,VWS V14.01,2013-06-17 11:26:00,
2013-06-17 07:27:00,76.6,71.8,30.06,North,0,0.0,0.0,85,0.01,,CLR,0.01,VWS V14.01,2013-06-17 11:27:00,
2013-06-17 07:28:00,76.6,71.8,30.06,North,0,0.0,0.0,85,0.01,,CLR,0.01,VWS V14.01,2013-06-17 11:28:00,
2013-06-17 07:30:00,76.6,71.8,30.06,North,0,0.0,0.0,85,0.01,,CLR,0.01,VWS V14.01,2013-06-17 11:30:00,
2013-06-17 07:35:00,76.8,72.0,30.06,North,0,0.0,0.0,85,0.01,,CLR,0.01,VWS V14.01,2013-06-17 11:35:00,
2013-06-17 07:36:00,76.8,72.3,30.06,North,0,0.0,0.0,86,0.01,,CLR,0.01,VWS V14.01,2013-06-17 11:36:00,
2013-06-17 07:37:00,76.8,72.3,30.06,North,0,0.0,0.0,86,0.01,,CLR,0.01,VWS V14.01,2013-06-17 11:37:00,
2013-06-17 07:39:00,77.0,72.2,30.06,North,0,0.0,0.0,85,0.01,,CLR,0.01,VWS V14.01,2013-06-17 11:39:00,
2013-06-17 07:41:00,77.0,72.2,30.06,North,0,0.0,0.0,85,0.01,,CLR,0.01,VWS V14.01,2013-06-17 11:41:00,
2013-06-17 07:43:00,77.0,72.2,30.06,North,0,0.0,0.0,85,0.00,,CLR,0.01,VWS V14.01,2013-06-17 11:43:00,
2013-06-17 07:45:00,77.0,72.2,30.06,North,0,0.0,0.0,85,0.00,,CLR,0.01,VWS V14.01,2013-06-17 11:45:00,
2013-06-17 07:49:00,77.2,72.3,30.06,North,0,0.0,0.0,85,0.00,,CLR,0.01,VWS V14.01,2013-06-17 11:49:00,
2013-06-17 12:57:00,90.9,63.2,30.09,North,0,0.0,0.0,40,0.00,,,0.01,VWS V14.01,2013-06-17 16:57:00,
2013-06-17 12:59:00,90.9,63.2,30.09,North,0,0.0,0.0,40,0.00,,,0.01,VWS V14.01,2013-06-17 16:59:00,
2013-06-17 13:00:00,91.0,63.4,30.09,North,0,0.0,0.0,40,0.00,,,0.01,VWS V14.01,2013-06-17 17:00:00,
2013-06-17 13:02:00,91.2,63.5,30.09,North,0,0.0,0.0,40,0.00,,,0.01,VWS V14.01,2013-06-17 17:02:00,
2013-06-17 13:05:00,91.2,62.8,30.09,North,0,0.0,0.0,39,0.00,,FEW044,0.01,VWS V14.01,2013-06-17 17:05:00,
2013-06-17 13:06:00,91.2,62.8,30.09,North,0,0.0,0.0,39,0.00,,FEW044,0.01,VWS V14.01,2013-06-17 17:06:00,
2013-06-17 13:07:00,91.4,62.2,30.09,North,0,0.0,0.0,38,0.00,,FEW044,0.01,VWS V14.01,2013-06-17 17:07:00,
2013-06-17 13:10:00,91.4,62.2,30.09,North,0,0.0,0.0,38,0.00,,FEW044,0.01,VWS V14.01,2013-06-17 17:10:00,
2013-06-17 13:14:00,91.8,61.8,30.06,North,0,0.0,0.0,37,0.00,,FEW044,0.01,VWS V14.01,2013-06-17 17:14:00,
2013-06-17 13:15:00,91.8,61.8,30.06,North,0,0.0,0.0,37,0.00,,FEW044,0.01,VWS V14.01,2013-06-17 17:15:00,
2013-06-17 13:16:00,91.9,62.0,30.06,North,0,0.0,0.0,37,0.00,,FEW044,0.01,VWS V14.01,2013-06-17 17:16:00,
2013-06-17 13:17:00,91.9,62.0,30.06,North,0,0.0,0.0,37,0.00,,FEW044,0.01,VWS V14.01,2013-06-17 17:17:00,
2013-06-17 13:20:00,92.5,62.4,30.06,North,0,0.0,0.0,37,0.00,,FEW044,0.01,VWS V14.01,2013-06-17 17:20:00,
2013-06-17 13:21:00,92.5,61.7,30.06,North,0,0.0,0.0,36,0.00,,FEW044,0.01,VWS V14.01,2013-06-17 17:21:00,
2013-06-17 13:24:00,92.8,61.2,30.06,North,0,0.0,0.0,35,0.00,,FEW044,0.01,VWS V14.01,2013-06-17 17:24:00,
2013-06-17 13:25:00,92.8,62.0,30.06,North,0,0.0,0.0,36,0.00,,FEW044,0.01,VWS V14.01,2013-06-17 17:25:00,
2013-06-17 13:26:00,92.8,62.0,30.06,North,0,0.0,0.0,36,0.00,,FEW044,0.01,VWS V14.01,2013-06-17 17:26:00,
2013-06-17 13:30:00,92.8,62.0,30.06,North,0,0.0,0.0,36,0.00,,FEW044,0.01,VWS V14.01,2013-06-17 17:30:00,
2013-06-17 13:31:00,92.8,61.2,30.06,North,0,0.0,0.0,35,0.00,,FEW044,0.01,VWS V14.01,2013-06-17 17:31:00,
2013-06-17 13:33:00,92.8,61.2,30.06,North,0,0.0,0.0,35,0.00,,FEW044,0.01,VWS V14.01,2013-06-17 17:33:00,
2013-06-17 13:34:00,93.0,60.5,30.06,North,0,0.0,0.0,34,0.00,,FEW044,0.01,VWS V14.01,2013-06-17 17:34:00,
2013-06-17 13:35:00,93.0,60.5,30.06,North,0,0.0,0.0,34,0.00,,FEW044,0.01,VWS V14.01,2013-06-17 17:35:00,
2013-06-17 13:36:00,93.0,59.7,30.06,North,0,0.0,0.0,33,0.00,,FEW044,0.01,VWS V14.01,2013-06-17 17:36:00,
2013-06-17 13:40:00,92.8,60.4,30.06,North,0,0.0,0.0,34,0.00,,FEW044,0.01,VWS V14.01,2013-06-17 17:40:00,
2013-06-17 13:41:00,92.8,60.4,30.06,North,0,0.0,0.0,34,0.00,,FEW044,0.01,VWS V14.01,2013-06-17 17:41:00,
2013-06-17 13:43:00,93.0,60.5,30.06,North,0,0.0,0.0,34,0.00,,FEW044,0.01,VWS V14.01,2013-06-17 17:43:00,
2013-06-17 13:44:00,93.0,60.5,30.06,North,0,0.0,0.0,34,0.00,,FEW044,0.01,VWS V14.01,2013-06-17 17:44:00,
2013-06-17 13:45:00,93.0,61.3,30.06,North,0,0.0,0.0,35,0.00,,FEW044,0.01,VWS V14.01,2013-06-17 17:45:00,
2013-06-17 13:49:00,93.2,60.7,30.06,North,0,0.0,0.0,34,0.00,,FEW044,0.01,VWS V14.01,2013-06-17 17:49:00,
2013-06-17 13:50:00,93.4,60.8,30.06,North,0,0.0,0.0,34,0.00,,FEW044,0.01,VWS V14.01,2013-06-17 17:50:00,
2013-06-17 13:52:00,93.4,60.8,30.06,North,0,0.0,0.0,34,0.00,,FEW044,0.01,VWS V14.01,2013-06-17 17:52:00,
2013-06-17 13:53:00,93.6,61.0,30.06,North,0,0.0,0.0,34,0.00,,FEW044,0.01,VWS V14.01,2013-06-17 17:53:00,
2013-06-17 13:55:00,93.6,60.2,30.06,North,0,0.0,0.0,33,0.00,,FEW044,0.01,VWS V14.01,2013-06-17 17:55:00,
2013-06-17 13:57:00,93.6,60.2,30.06,North,0,0.0,0.0,33,0.00,,FEW044,0.01,VWS V14.01,2013-06-17 17:57:00,
2013-06-17 13:58:00,93.6,60.2,30.06,North,0,0.0,0.0,33,0.00,,FEW044,0.01,VWS V14.01,2013-06-17 17:58:00,
2013-06-17 13:59:00,93.6,59.3,30.06,North,0,0.0,0.0,32,0.00,,FEW044,0.01,VWS V14.01,2013-06-17 17:59:00,
2013-06-17 14:02:00,93.6,59.3,30.06,North,0,0.0,0.0,32,0.00,,FEW044,0.01,VWS V14.01,2013-06-17 18:02:00,
2013-06-17 14:03:00,93.6,59.3,30.06,North,0,0.0,0.0,32,0.00,,BKN060,0.01,VWS V14.01,2013-06-17 18:03:00,
2013-06-17 14:07:00,93.6,60.2,30.06,North,0,0.0,0.0,33,0.00,,BKN060,0.01,VWS V14.01,2013-06-17 18:07:00,
2013-06-17 14:08:00,93.6,60.2,30.06,North,0,0.0,0.0,33,0.00,,BKN060,0.01,VWS V14.01,2013-06-17 18:08:00,
2013-06-17 14:09:00,93.6,60.2,30.06,North,0,0.0,0.0,33,0.00,,BKN060,0.01,VWS V14.01,2013-06-17 18:09:00,
2013-06-17 14:10:00,93.6,59.3,30.06,North,0,0.0,0.0,32,0.00,,BKN060,0.01,VWS V14.01,2013-06-17 18:10:00,
2013-06-17 14:16:00,93.7,61.2,30.06,North,0,0.0,0.0,34,0.00,,BKN060,0.01,VWS V14.01,2013-06-17 18:16:00,
2013-06-17 14:17:00,93.7,60.3,30.06,North,0,0.0,0.0,33,0.00,,BKN060,0.01,VWS V14.01,2013-06-17 18:17:00,
2013-06-17 14:18:00,93.7,61.2,30.06,North,0,0.0,0.0,34,0.00,,BKN060,0.01,VWS V14.01,2013-06-17 18:18:00,
2013-06-17 14:22:00,93.6,63.4,30.06,North,0,0.0,0.0,37,0.00,,BKN060,0.01,VWS V14.01,2013-06-17 18:22:00,
2013-06-17 14:23:00,93.6,63.4,30.06,North,0,0.0,0.0,37,0.00,,BKN060,0.01,VWS V14.01,2013-06-17 18:23:00,
2013-06-17 14:25:00,93.4,64.0,30.06,North,0,0.0,0.0,38,0.00,,BKN060,0.01,VWS V14.01,2013-06-17 18:25:00,
2013-06-17 14:26:00,93.2,63.8,30.06,North,0,0.0,0.0,38,0.00,,BKN060,0.01,VWS V14.01,2013-06-17 18:26:00,
2013-06-17 14:27:00,93.0,63.7,30.06,North,0,0.0,0.0,38,0.00,,BKN060,0.01,VWS V14.01,2013-06-17 18:27:00,
2013-06-17 14:28:00,92.7,63.4,30.06,North,0,0.0,0.0,38,0.00,,BKN060,0.01,VWS V14.01,2013-06-17 18:28:00,
2013-06-17 14:31:00,92.3,63.0,30.06,North,0,0.0,0.0,38,0.00,,BKN060,0.01,VWS V14.01,2013-06-17 18:31:00,
2013-06-17 14:32:00,92.1,62.9,30.06,North,0,0.0,0.0,38,0.00,,BKN060,0.01,VWS V14.01,2013-06-17 18:32:00,
2013-06-17 14:37:00,91.6,65.3,30.06,North,0,0.0,0.0,42,0.00,,BKN060,0.01,VWS V14.01,2013-06-17 18:37:00,
2013-06-17 14:39:00,91.2,64.9,30.06,North,0,0.0,0.0,42,0.00,,BKN060,0.01,VWS V14.01,2013-06-17 18:39:00,
2013-06-17 14:40:00,91.0,64.8,30.06,North,0,0.0,0.0,42,0.00,,BKN060,0.01,VWS V14.01,2013-06-17 18:40:00,
2013-06-17 14:43:00,90.7,65.1,30.06,North,0,0.0,0.0,43,0.00,,BKN060,0.01,VWS V14.01,2013-06-17 18:43:00,
2013-06-17 14:46:00,90.1,65.3,30.06,North,0,0.0,0.0,44,0.00,,BKN060,0.01,VWS V14.01,2013-06-17 18:46:00,
2013-06-17 14:48:00,89.8,65.6,30.06,North,0,0.0,0.0,45,0.00,,BKN060,0.01,VWS V14.01,2013-06-17 18:48:00,
2013-06-17 14:53:00,89.4,65.3,30.06,North,0,0.0,0.0,45,0.00,,BKN060,0.01,VWS V14.01,2013-06-17 18:53:00,
2013-06-17 14:56:00,89.2,65.1,30.06,North,0,0.0,0.0,45,0.00,,BKN060,0.01,VWS V14.01,2013-06-17 18:56:00,
2013-06-17 14:58:00,89.1,65.0,30.06,North,0,0.0,0.0,45,0.00,,BKN060,0.01,VWS V14.01,2013-06-17 18:58:00,
2013-06-17 15:00:00,89.2,65.1,30.06,North,0,0.0,0.0,45,0.00,,BKN060,0.01,VWS V14.01,2013-06-17 19:00:00,
2013-06-17 15:01:00,89.2,65.8,30.06,North,0,0.0,0.0,46,0.00,,BKN060,0.01,VWS V14.01,2013-06-17 19:01:00,
2013-06-17 15:04:00,89.4,65.9,30.06,North,0,0.0,0.0,46,0.00,,SCT049,0.01,VWS V14.01,2013-06-17 19:04:00,
2013-06-17 15:05:00,89.4,65.9,30.06,North,0,0.0,0.0,46,0.00,,SCT049,0.01,VWS V14.01,2013-06-17 19:05:00,
2013-06-17 15:07:00,89.8,65.6,30.06,North,0,0.0,0.0,45,0.00,,SCT049,0.01,VWS V14.01,2013-06-17 19:07:00,
2013-06-17 15:10:00,90.0,63.8,30.06,North,0,0.0,0.0,42,0.00,,SCT049,0.01,VWS V14.01,2013-06-17 19:10:00,
2013-06-17 15:12:00,90.1,65.3,30.06,North,0,0.0,0.0,44,0.00,,SCT049,0.01,VWS V14.01,2013-06-17 19:12:00,
2013-06-17 15:14:00,90.1,64.7,30.06,North,0,0.0,0.0,43,0.00,,SCT049,0.01,VWS V14.01,2013-06-17 19:14:00,
2013-06-17 15:15:00,90.3,64.1,30.06,North,0,0.0,0.0,42,0.00,,SCT049,0.01,VWS V14.01,2013-06-17 19:15:00,
2013-06-17 15:17:00,90.3,64.1,30.06,North,0,0.0,0.0,42,0.00,,SCT049,0.01,VWS V14.01,2013-06-17 19:17:00,
2013-06-17 15:20:00,90.3,63.5,30.06,North,0,0.0,0.0,41,0.00,,SCT049,0.01,VWS V14.01,2013-06-17 19:20:00,
2013-06-17 15:22:00,90.3,63.5,30.06,North,0,0.0,0.0,41,0.00,,SCT049,0.01,VWS V14.01,2013-06-17 19:22:00,
2013-06-17 15:23:00,90.3,63.5,30.06,North,0,0.0,0.0,41,0.00,,SCT049,0.01,VWS V14.01,2013-06-17 19:23:00,
2013-06-17 15:27:00,90.3,62.7,30.06,North,0,0.0,0.0,40,0.00,,SCT049,0.01,VWS V14.01,2013-06-17 19:27:00,
2013-06-17 15:28:00,90.5,64.3,30.06,North,0,0.0,0.0,42,0.00,,SCT049,0.01,VWS V14.01,2013-06-17 19:28:00,
2013-06-17 15:30:00,90.5,62.9,30.06,North,0,0.0,0.0,40,0.00,,SCT049,0.01,VWS V14.01,2013-06-17 19:30:00,
2013-06-17 15:34:00,90.5,62.9,30.06,North,0,0.0,0.0,40,0.00,,SCT049,0.01,VWS V14.01,2013-06-17 19:34:00,
2013-06-17 15:35:00,90.5,62.9,30.06,North,0,0.0,0.0,40,0.00,,SCT049,0.01,VWS V14.01,2013-06-17 19:35:00,
2013-06-17 15:36:00,90.5,62.9,30.06,North,0,0.0,0.0,40,0.00,,SCT049,0.01,VWS V14.01,2013-06-17 19:36:00,
2013-06-17 15:37:00,90.5,62.9,30.06,North,0,0.0,0.0,40,0.00,,SCT049,0.01,VWS V14.01,2013-06-17 19:37:00,
2013-06-17 15:38:00,90.5,62.9,30.06,North,0,0.0,0.0,40,0.00,,SCT049,0.01,VWS V14.01,2013-06-17 19:38:00,
2013-06-17 15:40:00,90.5,62.9,30.06,North,0,0.0,0.0,40,0.00,,SCT049,0.01,VWS V14.01,2013-06-17 19:40:00,
2013-06-17 15:42:00,90.5,62.9,30.06,North,0,0.0,0.0,40,0.00,,SCT049,0.01,VWS V14.01,2013-06-17 19:42:00,
2013-06-17 15:44:00,90.7,63.1,30.06,North,0,0.0,0.0,40,0.00,,SCT049,0.01,VWS V14.01,2013-06-17 19:44:00,
2013-06-17 15:45:00,90.7,63.1,30.06,North,0,0.0,0.0,40,0.00,,SCT049,0.01,VWS V14.01,2013-06-17 19:45:00,
2013-06-17 15:47:00,90.7,62.3,30.06,North,0,0.0,0.0,39,0.00,,SCT049,0.01,VWS V14.01,2013-06-17 19:47:00,
2013-06-17 15:49:00,90.7,63.1,30.06,North,0,0.0,0.0,40,0.00,,SCT049,0.01,VWS V14.01,2013-06-17 19:49:00,
2013-06-17 15:50:00,90.7,63.1,30.06,North,0,0.0,0.0,40,0.00,,SCT049,0.01,VWS V14.01,2013-06-17 19:50:00,
2013-06-17 15:51:00,90.7,63.1,30.06,North,0,0.0,0.0,40,0.00,,SCT049,0.01,VWS V14.01,2013-06-17 19:51:00,
2013-06-17 15:53:00,90.9,63.2,30.06,North,0,0.0,0.0,40,0.00,,SCT049,0.01,VWS V14.01,2013-06-17 19:53:00,
2013-06-17 15:54:00,90.9,63.2,30.06,North,0,0.0,0.0,40,0.00,,SCT049,0.01,VWS V14.01,2013-06-17 19:54:00,
2013-06-17 15:56:00,91.0,63.4,30.06,North,0,0.0,0.0,40,0.00,,SCT049,0.01,VWS V14.01,2013-06-17 19:56:00,
2013-06-17 15:58:00,91.0,62.7,30.06,North,0,0.0,0.0,39,0.00,,SCT049,0.01,VWS V14.01,2013-06-17 19:58:00,
2013-06-17 16:00:00,91.0,62.7,30.03,North,0,0.0,0.0,39,0.00,,SCT049,0.01,VWS V14.01,2013-06-17 20:00:00,
2013-06-17 16:02:00,90.9,62.5,30.03,North,0,0.0,0.0,39,0.00,,SCT049,0.01,VWS V14.01,2013-06-17 20:02:00,
2013-06-17 16:05:00,90.9,62.5,30.03,North,0,0.0,0.0,39,0.00,,FEW049,0.01,VWS V14.01,2013-06-17 20:05:00,
2013-06-17 16:06:00,90.9,61.8,30.03,North,0,0.0,0.0,38,0.00,,FEW049,0.01,VWS V14.01,2013-06-17 20:06:00,
2013-06-17 16:09:00,90.9,62.5,30.03,North,0,0.0,0.0,39,0.00,,FEW049,0.01,VWS V14.01,2013-06-17 20:09:00,
2013-06-17 16:10:00,91.0,63.4,30.03,North,0,0.0,0.0,40,0.00,,FEW049,0.01,VWS V14.01,2013-06-17 20:10:00,
2013-06-17 16:11:00,91.0,62.7,30.03,North,0,0.0,0.0,39,0.00,,FEW049,0.01,VWS V14.01,2013-06-17 20:11:00,
2013-06-17 16:13:00,91.0,62.7,30.03,North,0,0.0,0.0,39,0.00,,FEW049,0.01,VWS V14.01,2013-06-17 20:13:00,
2013-06-17 16:14:00,91.0,62.7,30.03,North,0,0.0,0.0,39,0.00,,FEW049,0.01,VWS V14.01,2013-06-17 20:14:00,
2013-06-17 16:17:00,91.2,62.8,30.03,North,0,0.0,0.0,39,0.00,,FEW049,0.01,VWS V14.01,2013-06-17 20:17:00,
2013-06-17 16:20:00,91.0,62.7,30.03,North,0,0.0,0.0,39,0.00,,FEW049,0.01,VWS V14.01,2013-06-17 20:20:00,
2013-06-17 16:21:00,91.0,62.7,30.03,North,0,0.0,0.0,39,0.00,,FEW049,0.01,VWS V14.01,2013-06-17 20:21:00,
2013-06-17 16:22:00,91.2,62.1,30.03,North,0,0.0,0.0,38,0.00,,FEW049,0.01,VWS V14.01,2013-06-17 20:22:00,
2013-06-17 16:23:00,91.2,62.1,30.03,North,0,0.0,0.0,38,0.00,,FEW049,0.01,VWS V14.01,2013-06-17 20:23:00,
2013-06-17 16:25:00,91.2,63.5,30.03,North,0,0.0,0.0,40,0.00,,FEW049,0.01,VWS V14.01,2013-06-17 20:25:00,
2013-06-17 16:26:00,91.2,62.1,30.03,North,0,0.0,0.0,38,0.00,,FEW049,0.01,VWS V14.01,2013-06-17 20:26:00,
2013-06-17 16:28:00,91.2,62.8,30.03,North,0,0.0,0.0,39,0.00,,FEW049,0.01,VWS V14.01,2013-06-17 20:28:00,
2013-06-17 16:32:00,91.4,62.2,30.03,North,0,0.0,0.0,38,0.00,,FEW049,0.01,VWS V14.01,2013-06-17 20:32:00,
2013-06-17 16:33:00,91.4,62.2,30.03,North,0,0.0,0.0,38,0.00,,FEW049,0.01,VWS V14.01,2013-06-17 20:33:00,
2013-06-17 16:36:00,91.6,63.1,30.03,North,0,0.0,0.0,39,0.00,,FEW049,0.01,VWS V14.01,2013-06-17 20:36:00,
2013-06-17 16:37:00,91.8,63.3,30.03,North,0,0.0,0.0,39,0.00,,FEW049,0.01,VWS V14.01,2013-06-17 20:37:00,
2013-06-17 16:38:00,91.8,62.6,30.03,North,0,0.0,0.0,38,0.00,,FEW049,0.01,VWS V14.01,2013-06-17 20:38:00,
2013-06-17 16:39:00,91.8,62.6,30.03,North,0,0.0,0.0,38,0.00,,FEW049,0.01,VWS V14.01,2013-06-17 20:39:00,
2013-06-17 16:41:00,91.2,62.8,30.03,North,0,0.0,0.0,39,0.00,,FEW049,0.01,VWS V14.01,2013-06-17 20:41:00,
2013-06-17 16:43:00,90.9,63.2,30.03,North,0,0.0,0.0,40,0.00,,FEW049,0.01,VWS V14.01,2013-06-17 20:43:00,
2013-06-17 16:45:00,90.3,63.5,30.03,North,0,0.0,0.0,41,0.00,,FEW049,0.01,VWS V14.01,2013-06-17 20:45:00,
2013-06-17 16:47:00,89.8,63.7,30.03,North,0,0.0,0.0,42,0.00,,FEW049,0.01,VWS V14.01,2013-06-17 20:47:00,
2013-06-17 16:49:00,89.6,62.8,30.03,North,0,0.0,0.0,41,0.00,,FEW049,0.01,VWS V14.01,2013-06-17 20:49:00,
2013-06-17 16:50:00,89.4,63.3,30.03,North,0,0.0,0.0,42,0.00,,FEW049,0.01,VWS V14.01,2013-06-17 20:50:00,
2013-06-17 16:53:00,89.1,63.7,30.03,North,0,0.0,0.0,43,0.00,,FEW049,0.01,VWS V14.01,2013-06-17 20:53:00,
2013-06-17 16:54:00,88.9,62.8,30.03,North,0,0.0,0.0,42,0.00,,FEW049,0.01,VWS V14.01,2013-06-17 20:54:00,
2013-06-17 16:58:00,88.7,63.3,30.03,North,0,0.0,0.0,43,0.00,,FEW049,0.01,VWS V14.01,2013-06-17 20:58:00,
2013-06-17 16:59:00,88.7,63.3,30.03,North,0,0.0,0.0,43,0.00,,FEW049,0.01,VWS V14.01,2013-06-17 20:59:00,
2013-06-17 17:02:00,88.5,63.8,30.03,North,0,0.0,0.0,44,0.00,,FEW049,0.01,VWS V14.01,2013-06-17 21:02:00,
2013-06-17 17:03:00,88.3,64.3,30.03,North,0,0.0,0.0,45,0.00,,FEW049,0.01,VWS V14.01,2013-06-17 21:03:00,
2013-06-17 17:04:00,88.3,64.9,30.03,North,0,0.0,0.0,46,0.00,,OVC110,0.01,VWS V14.01,2013-06-17 21:04:00,
2013-06-17 17:05:00,88.2,65.4,30.03,North,0,0.0,0.0,47,0.00,,OVC110,0.01,VWS V14.01,2013-06-17 21:05:00,
2013-06-17 17:08:00,87.8,66.3,30.03,North,0,0.0,0.0,49,0.00,,OVC110,0.01,VWS V14.01,2013-06-17 21:08:00,
2013-06-17 17:09:00,87.4,67.1,30.03,North,0,0.0,0.0,51,0.00,,OVC110,0.01,VWS V14.01,2013-06-17 21:09:00,
2013-06-17 17:11:00,86.9,66.6,30.03,North,0,0.0,0.0,51,0.01,,OVC110,0.02,VWS V14.01,2013-06-17 21:11:00,
2013-06-17 17:14:00,85.1,65.5,30.03,North,0,0.0,0.0,52,0.01,,OVC110,0.02,VWS V14.01,2013-06-17 21:14:00,
2013-06-17 17:15:00,84.6,66.1,30.03,North,0,0.0,0.0,54,0.01,,OVC110,0.02,VWS V14.01,2013-06-17 21:15:00,
2013-06-17 17:19:00,83.3,67.5,30.03,North,0,0.0,0.0,59,0.01,,OVC110,0.02,VWS V14.01,2013-06-17 21:19:00,
2013-06-17 17:21:00,83.1,67.3,30.03,North,0,0.0,0.0,59,0.01,,OVC110,0.02,VWS V14.01,2013-06-17 21:21:00,
2013-06-17 17:50:00,85.1,67.7,30.03,North,0,0.0,0.0,56,0.02,,,0.03,VWS V14.01,2013-06-17 21:50:00,
2013-06-17 17:51:00,85.3,67.8,30.03,North,0,0.0,0.0,56,0.02,,,0.03,VWS V14.01,2013-06-17 21:51:00,
2013-06-17 17:54:00,86.0,68.5,30.03,North,0,0.0,0.0,56,0.02,,,0.03,VWS V14.01,2013-06-17 21:54:00,
2013-06-17 17:56:00,86.4,68.8,30.03,North,0,0.0,0.0,56,0.02,,,0.03,VWS V14.01,2013-06-17 21:56:00,
2013-06-17 17:57:00,86.7,68.6,30.03,North,0,0.0,0.0,55,0.02,,,0.03,VWS V14.01,2013-06-17 21:57:00,
2013-06-17 17:59:00,87.1,68.4,30.03,North,0,0.0,0.0,54,0.02,,,0.03,VWS V14.01,2013-06-17 21:59:00,
2013-06-17 18:00:00,87.3,68.6,30.03,North,0,0.0,0.0,54,0.02,,,0.03,VWS V14.01,2013-06-17 22:00:00,
2013-06-17 18:01:00,87.6,68.9,30.03,North,0,0.0,0.0,54,0.02,,,0.03,VWS V14.01,2013-06-17 22:01:00,
2013-06-17 18:05:00,88.2,68.9,30.03,North,0,0.0,0.0,53,0.02,,FEW110,0.03,VWS V14.01,2013-06-17 22:05:00,
2013-06-17 18:06:00,88.3,69.1,30.03,North,0,0.0,0.0,53,0.02,,FEW110,0.03,VWS V14.01,2013-06-17 22:06:00,
2013-06-17 18:07:00,88.3,69.1,30.03,North,0,0.0,0.0,53,0.02,,FEW110,0.03,VWS V14.01,2013-06-17 22:07:00,
2013-06-17 18:12:00,88.0,66.4,30.03,North,0,0.0,0.0,49,0.01,,FEW110,0.03,VWS V14.01,2013-06-17 22:12:00,
2013-06-17 18:13:00,88.0,66.4,30.03,North,0,0.0,0.0,49,0.01,,FEW110,0.03,VWS V14.01,2013-06-17 22:13:00,
2013-06-17 18:14:00,87.6,66.1,30.03,North,0,0.0,0.0,49,0.01,,FEW110,0.03,VWS V14.01,2013-06-17 22:14:00,
2013-06-17 18:15:00,87.6,66.1,30.03,North,0,0.0,0.0,49,0.01,,FEW110,0.03,VWS V14.01,2013-06-17 22:15:00,
2013-06-17 18:16:00,87.4,65.9,30.03,North,0,0.0,0.0,49,0.01,,FEW110,0.03,VWS V14.01,2013-06-17 22:16:00,
2013-06-17 18:20:00,86.7,65.3,30.03,North,0,0.0,0.0,49,0.01,,FEW110,0.03,VWS V14.01,2013-06-17 22:20:00,
2013-06-17 18:21:00,86.4,65.5,30.03,North,0,0.0,0.0,50,0.01,,FEW110,0.03,VWS V14.01,2013-06-17 22:21:00,
2013-06-17 18:23:00,85.8,65.6,30.03,North,0,0.0,0.0,51,0.00,,FEW110,0.03,VWS V14.01,2013-06-17 22:23:00,
2013-06-17 18:25:00,85.5,65.8,30.03,North,0,0.0,0.0,52,0.00,,FEW110,0.03,VWS V14.01,2013-06-17 22:25:00,
2013-06-17 18:26:00,85.1,65.5,30.03,North,0,0.0,0.0,52,0.00,,FEW110,0.03,VWS V14.01,2013-06-17 22:26:00,
2013-06-17 18:28:00,84.7,65.7,30.03,North,0,0.0,0.0,53,0.00,,FEW110,0.03,VWS V14.01,2013-06-17 22:28:00,
2013-06-17 18:29:00,84.6,65.6,30.06,North,0,0.0,0.0,53,0.00,,FEW110,0.03,VWS V14.01,2013-06-17 22:29:00,
2013-06-17 18:34:00,83.3,66.0,30.06,North,0,0.0,0.0,56,0.02,,,0.06,VWS V14.01,2013-06-17 22:34:00,
2013-06-17 18:35:00,83.1,65.8,30.06,North,0,0.0,0.0,56,0.02,,,0.06,VWS V14.01,2013-06-17 22:35:00,
2013-06-17 18:37:00,82.4,65.7,30.06,North,0,0.0,0.0,57,0.03,,,0.07,VWS V14.01,2013-06-17 22:37:00,
2013-06-17 18:39:00,82.2,66.0,30.06,North,0,0.0,0.0,58,0.03,,,0.07,VWS V14.01,2013-06-17 22:39:00,
2013-06-17 18:42:00,81.0,65.3,30.06,North,0,0.0,0.0,59,0.03,,,0.07,VWS V14.01,2013-06-17 22:42:00,
2013-06-17 18:43:00,80.8,65.1,30.06,North,0,0.0,0.0,59,0.03,,,0.07,VWS V14.01,2013-06-17 22:43:00,
2013-06-17 18:44:00,80.8,65.1,30.03,North,0,0.0,0.0,59,0.03,,BKN060,0.07,VWS V14.01,2013-06-17 22:44:00,
2013-06-17 18:46:00,80.1,65.4,30.03,North,0,0.0,0.0,61,0.03,,BKN060,0.07,VWS V14.01,2013-06-17 22:46:00,
2013-06-17 18:48:00,79.5,65.8,30.03,North,0,0.0,0.0,63,0.03,,BKN060,0.07,VWS V14.01,2013-06-17 22:48:00,
2013-06-17 18:49:00,79.3,66.1,30.03,North,0,0.0,0.0,64,0.03,,BKN060,0.07,VWS V14.01,2013-06-17 22:49:00,
2013-06-17 18:52:00,78.8,66.1,30.03,North,0,0.0,0.0,65,0.03,,BKN060,0.07,VWS V14.01,2013-06-17 22:52:00,
2013-06-17 18:54:00,78.6,65.9,30.03,North,0,0.0,0.0,65,0.03,,OVC049,0.07,VWS V14.01,2013-06-17 22:54:00,
2013-06-17 18:56:00,78.4,66.2,30.03,North,0,0.0,0.0,66,0.03,,OVC049,0.07,VWS V14.01,2013-06-17 22:56:00,
2013-06-17 18:58:00,78.4,66.2,30.03,North,0,0.0,0.0,66,0.03,,OVC049,0.07,VWS V14.01,2013-06-17 22:58:00,
2013-06-17 19:00:00,78.1,66.2,30.03,North,0,0.0,0.0,67,0.03,,OVC049,0.07,VWS V14.01,2013-06-17 23:00:00,
2013-06-17 19:01:00,78.1,66.2,30.03,North,0,0.0,0.0,67,0.03,,OVC049,0.07,VWS V14.01,2013-06-17 23:01:00,
2013-06-17 19:06:00,78.1,66.7,30.03,North,0,0.0,0.0,68,0.03,,RA,0.07,VWS V14.01,2013-06-17 23:06:00,
2013-06-17 19:09:00,78.1,66.7,30.03,North,0,0.0,0.0,68,0.03,,RA,0.07,VWS V14.01,2013-06-17 23:09:00,
2013-06-17 19:10:00,78.1,66.7,30.03,North,0,0.0,0.0,68,0.03,,RA,0.07,VWS V14.01,2013-06-17 23:10:00,
2013-06-17 19:11:00,78.1,66.7,30.03,North,0,0.0,0.0,68,0.03,,RA,0.07,VWS V14.01,2013-06-17 23:11:00,
2013-06-17 19:14:00,78.4,67.8,30.03,North,0,0.0,0.0,70,0.03,,-RA,0.07,VWS V14.01,2013-06-17 23:14:00,
2013-06-17 19:15:00,78.4,67.8,30.03,North,0,0.0,0.0,70,0.03,,-RA,0.07,VWS V14.01,2013-06-17 23:15:00,
2013-06-17 19:20:00,78.8,68.6,30.03,North,0,0.0,0.0,71,0.03,,-RA,0.07,VWS V14.01,2013-06-17 23:20:00,
2013-06-17 19:21:00,78.8,68.6,30.03,North,0,0.0,0.0,71,0.03,,-RA,0.07,VWS V14.01,2013-06-17 23:21:00,
2013-06-17 19:25:00,79.2,69.4,30.03,North,0,0.0,0.0,72,0.03,,BKN100,0.07,VWS V14.01,2013-06-17 23:25:00,
2013-06-17 19:26:00,79.3,69.9,30.03,North,0,0.0,0.0,73,0.03,,BKN100,0.07,VWS V14.01,2013-06-17 23:26:00,
2013-06-17 19:27:00,79.3,69.9,30.03,North,0,0.0,0.0,73,0.03,,BKN100,0.07,VWS V14.01,2013-06-17 23:27:00,
2013-06-17 19:28:00,79.3,69.9,30.03,North,0,0.0,0.0,73,0.03,,BKN100,0.07,VWS V14.01,2013-06-17 23:28:00,
2013-06-17 19:30:00,79.5,69.7,30.03,North,0,0.0,0.0,72,0.03,,BKN100,0.07,VWS V14.01,2013-06-17 23:30:00,
2013-06-17 19:31:00,79.7,69.9,30.03,North,0,0.0,0.0,72,0.03,,BKN100,0.07,VWS V14.01,2013-06-17 23:31:00,
2013-06-17 19:32:00,79.7,69.9,30.03,North,0,0.0,0.0,72,0.03,,BKN100,0.07,VWS V14.01,2013-06-17 23:32:00,
2013-06-17 19:36:00,79.9,70.1,30.03,North,0,0.0,0.0,72,0.01,,BKN100,0.07,VWS V14.01,2013-06-17 23:36:00,
2013-06-17 19:39:00,80.2,70.4,30.03,North,0,0.0,0.0,72,0.00,,BKN100,0.07,VWS V14.01,2013-06-17 23:39:00,
2013-06-17 19:40:00,80.4,70.2,30.03,North,0,0.0,0.0,71,0.00,,BKN100,0.07,VWS V14.01,2013-06-17 23:40:00,
2013-06-17 19:42:00,80.6,69.9,30.03,North,0,0.0,0.0,70,0.00,,BKN100,0.07,VWS V14.01,2013-06-17 23:42:00,
2013-06-17 19:45:00,80.8,69.7,30.03,North,0,0.0,0.0,69,0.00,,BKN100,0.07,VWS V14.01,2013-06-17 23:45:00,
2013-06-17 19:46:00,81.0,69.8,30.03,North,0,0.0,0.0,69,0.00,,BKN100,0.07,VWS V14.01,2013-06-17 23:46:00,
2013-06-17 19:47:00,81.0,69.8,30.03,North,0,0.0,0.0,69,0.00,,BKN100,0.07,VWS V14.01,2013-06-17 23:47:00,
2013-06-17 19:48:00,81.0,69.8,30.03,North,0,0.0,0.0,69,0.00,,BKN100,0.07,VWS V14.01,2013-06-17 23:48:00,
2013-06-17 19:50:00,81.1,70.0,30.03,North,0,0.0,0.0,69,0.00,,BKN100,0.07,VWS V14.01,2013-06-17 23:50:00,
2013-06-17 19:51:00,81.3,70.2,30.03,North,0,0.0,0.0,69,0.00,,BKN100,0.07,VWS V14.01,2013-06-17 23:51:00,
2013-06-17 19:52:00,81.3,70.2,30.03,North,0,0.0,0.0,69,0.00,,BKN100,0.07,VWS V14.01,2013-06-17 23:52:00,
2013-06-17 19:53:00,81.5,70.4,30.03,North,0,0.0,0.0,69,0.00,,BKN100,0.07,VWS V14.01,2013-06-17 23:53:00,
2013-06-17 19:57:00,81.7,70.5,30.03,North,0,0.0,0.0,69,0.00,,BKN100,0.07,VWS V14.01,2013-06-17 23:57:00,
2013-06-17 19:58:00,81.9,70.7,30.03,North,0,0.0,0.0,69,0.00,,BKN100,0.07,VWS V14.01,2013-06-17 23:58:00,
2013-06-17 19:59:00,81.9,70.7,30.03,North,0,0.0,0.0,69,0.00,,BKN100,0.07,VWS V14.01,2013-06-17 23:59:00,
2013-06-17 20:00:00,81.9,70.3,30.03,North,0,0.0,0.0,68,0.00,,BKN100,0.07,VWS V14.01,2013-06-18 00:00:00,
2013-06-17 20:01:00,81.9,70.3,30.03,North,0,0.0,0.0,68,0.00,,BKN100,0.07,VWS V14.01,2013-06-18 00:01:00,
2013-06-17 20:06:00,82.0,70.4,30.03,North,0,0.0,0.0,68,0.00,,CLR,0.07,VWS V14.01,2013-06-18 00:06:00,
2013-06-17 20:07:00,82.0,70.4,30.03,North,0,0.0,0.0,68,0.00,,CLR,0.07,VWS V14.01,2013-06-18 00:07:00,
2013-06-17 20:08:00,82.0,70.0,30.03,North,0,0.0,0.0,67,0.00,,CLR,0.07,VWS V14.01,2013-06-18 00:08:00,
2013-06-17 20:09:00,81.9,69.8,30.03,North,0,0.0,0.0,67,0.00,,CLR,0.07,VWS V14.01,2013-06-18 00:09:00,
2013-06-17 20:11:00,81.9,69.8,30.03,North,0,0.0,0.0,67,0.00,,CLR,0.07,VWS V14.01,2013-06-18 00:11:00,
2013-06-17 20:14:00,81.9,69.8,30.03,North,0,0.0,0.0,67,0.00,,CLR,0.07,VWS V14.01,2013-06-18 00:14:00,
2013-06-17 20:16:00,81.9,69.8,30.03,North,0,0.0,0.0,67,0.00,,CLR,0.07,VWS V14.01,2013-06-18 00:16:00,
2013-06-17 20:17:00,81.9,69.8,30.03,North,0,0.0,0.0,67,0.00,,CLR,0.07,VWS V14.01,2013-06-18 00:17:00,
2013-06-17 20:19:00,81.9,69.8,30.03,North,0,0.0,0.0,67,0.00,,CLR,0.07,VWS V14.01,2013-06-18 00:19:00,
2013-06-17 20:22:00,81.7,70.1,30.03,North,0,0.0,0.0,68,0.00,,CLR,0.07,VWS V14.01,2013-06-18 00:22:00,
2013-06-17 20:23:00,81.7,70.1,30.03,North,0,0.0,0.0,68,0.00,,CLR,0.07,VWS V14.01,2013-06-18 00:23:00,
2013-06-17 20:24:00,81.7,70.1,30.03,North,0,0.0,0.0,68,0.00,,CLR,0.07,VWS V14.01,2013-06-18 00:24:00,
2013-06-17 20:27:00,81.7,70.1,30.03,North,0,0.0,0.0,68,0.00,,CLR,0.07,VWS V14.01,2013-06-18 00:27:00,
2013-06-17 20:28:00,81.7,70.1,30.03,North,0,0.0,0.0,68,0.00,,CLR,0.07,VWS V14.01,2013-06-18 00:28:00,
2013-06-17 20:29:00,81.7,70.1,30.03,North,0,0.0,0.0,68,0.00,,CLR,0.07,VWS V14.01,2013-06-18 00:29:00,
2013-06-17 20:30:00,81.7,70.1,30.03,North,0,0.0,0.0,68,0.00,,CLR,0.07,VWS V14.01,2013-06-18 00:30:00,
2013-06-17 20:33:00,81.3,70.2,30.03,North,0,0.0,0.0,69,0.00,,CLR,0.07,VWS V14.01,2013-06-18 00:33:00,
2013-06-17 20:34:00,81.1,70.0,30.03,North,0,0.0,0.0,69,0.00,,CLR,0.07,VWS V14.01,2013-06-18 00:34:00,
2013-06-17 20:37:00,81.1,70.0,30.03,North,0,0.0,0.0,69,0.00,,CLR,0.07,VWS V14.01,2013-06-18 00:37:00,
2013-06-17 20:40:00,81.1,70.0,30.03,North,0,0.0,0.0,69,0.00,,CLR,0.07,VWS V14.01,2013-06-18 00:40:00,
2013-06-17 20:42:00,81.0,70.3,30.03,North,0,0.0,0.0,70,0.00,,CLR,0.07,VWS V14.01,2013-06-18 00:42:00,
2013-06-17 20:43:00,81.0,70.3,30.06,North,0,0.0,0.0,70,0.00,,CLR,0.07,VWS V14.01,2013-06-18 00:43:00,
2013-06-17 20:45:00,81.0,70.7,30.06,North,0,0.0,0.0,71,0.00,,CLR,0.07,VWS V14.01,2013-06-18 00:45:00,
2013-06-17 20:49:00,80.8,70.5,30.06,North,0,0.0,0.0,71,0.00,,CLR,0.07,VWS V14.01,2013-06-18 00:49:00,
2013-06-17 20:51:00,80.8,70.9,30.06,North,0,0.0,0.0,72,0.00,,CLR,0.07,VWS V14.01,2013-06-18 00:51:00,
2013-06-17 20:52:00,80.8,70.9,30.06,North,0,0.0,0.0,72,0.00,,CLR,0.07,VWS V14.01,2013-06-18 00:52:00,
2013-06-17 20:54:00,80.8,70.9,30.06,North,0,0.0,0.0,72,0.00,,CLR,0.07,VWS V14.01,2013-06-18 00:54:00,
2013-06-17 20:57:00,80.8,70.9,30.06,North,0,0.0,0.0,72,0.00,,CLR,0.07,VWS V14.01,2013-06-18 00:57:00,
2013-06-17 20:58:00,80.8,70.9,30.06,North,0,0.0,0.0,72,0.00,,CLR,0.07,VWS V14.01,2013-06-18 00:58:00,
2013-06-17 20:59:00,80.6,70.8,30.06,North,0,0.0,0.0,72,0.00,,CLR,0.07,VWS V14.01,2013-06-18 00:59:00,
2013-06-17 21:03:00,80.6,71.2,30.06,North,0,0.0,0.0,73,0.00,,CLR,0.07,VWS V14.01,2013-06-18 01:03:00,
2013-06-17 21:05:00,80.6,71.2,30.06,North,0,0.0,0.0,73,0.00,,CLR,0.07,VWS V14.01,2013-06-18 01:05:00,
2013-06-17 21:08:00,80.6,71.2,30.06,North,0,0.0,0.0,73,0.00,,CLR,0.07,VWS V14.01,2013-06-18 01:08:00,
2013-06-17 21:10:00,80.4,71.4,30.06,North,0,0.0,0.0,74,0.00,,CLR,0.07,VWS V14.01,2013-06-18 01:10:00,
2013-06-17 21:11:00,80.4,71.4,30.06,North,0,0.0,0.0,74,0.00,,CLR,0.07,VWS V14.01,2013-06-18 01:11:00,
2013-06-17 21:14:00,80.4,71.4,30.06,North,0,0.0,0.0,74,0.00,,CLR,0.07,VWS V14.01,2013-06-18 01:14:00,
2013-06-17 21:15:00,80.4,71.4,30.06,North,0,0.0,0.0,74,0.00,,CLR,0.07,VWS V14.01,2013-06-18 01:15:00,
2013-06-17 21:16:00,80.4,71.4,30.06,North,0,0.0,0.0,74,0.00,,CLR,0.07,VWS V14.01,2013-06-18 01:16:00,
2013-06-17 21:20:00,80.4,71.8,30.06,North,0,0.0,0.0,75,0.00,,CLR,0.07,VWS V14.01,2013-06-18 01:20:00,
2013-06-17 21:21:00,80.4,71.8,30.06,North,0,0.0,0.0,75,0.00,,CLR,0.07,VWS V14.01,2013-06-18 01:21:00,
2013-06-17 21:24:00,80.4,71.8,30.06,North,0,0.0,0.0,75,0.00,,CLR,0.07,VWS V14.01,2013-06-18 01:24:00,
2013-06-17 21:25:00,80.4,71.8,30.06,North,0,0.0,0.0,75,0.00,,CLR,0.07,VWS V14.01,2013-06-18 01:25:00,
2013-06-17 21:26:00,80.4,71.8,30.06,North,0,0.0,0.0,75,0.00,,CLR,0.07,VWS V14.01,2013-06-18 01:26:00,
2013-06-17 21:28:00,80.4,71.8,30.06,North,0,0.0,0.0,75,0.00,,CLR,0.07,VWS V14.01,2013-06-18 01:28:00,
2013-06-17 21:30:00,80.4,72.2,30.06,North,0,0.0,0.0,76,0.00,,CLR,0.07,VWS V14.01,2013-06-18 01:30:00,
2013-06-17 21:32:00,80.4,72.2,30.06,North,0,0.0,0.0,76,0.00,,CLR,0.07,VWS V14.01,2013-06-18 01:32:00,
2013-06-17 21:35:00,80.2,72.0,30.06,North,0,0.0,0.0,76,0.00,,CLR,0.07,VWS V14.01,2013-06-18 01:35:00,
2013-06-17 21:37:00,80.2,72.0,30.06,North,0,0.0,0.0,76,0.00,,CLR,0.07,VWS V14.01,2013-06-18 01:37:00,
2013-06-17 21:38:00,80.2,72.0,30.06,North,0,0.0,0.0,76,0.00,,CLR,0.07,VWS V14.01,2013-06-18 01:38:00,
2013-06-17 21:39:00,80.2,72.4,30.06,North,0,0.0,0.0,77,0.00,,CLR,0.07,VWS V14.01,2013-06-18 01:39:00,
2013-06-17 21:40:00,80.2,72.4,30.06,North,0,0.0,0.0,77,0.00,,CLR,0.07,VWS V14.01,2013-06-18 01:40:00,
2013-06-17 21:42:00,80.2,72.4,30.06,North,0,0.0,0.0,77,0.00,,CLR,0.07,VWS V14.01,2013-06-18 01:42:00,
2013-06-17 21:46:00,80.2,72.4,30.06,North,0,0.0,0.0,77,0.00,,CLR,0.07,VWS V14.01,2013-06-18 01:46:00,
2013-06-17 21:47:00,80.1,72.2,30.06,North,0,0.0,0.0,77,0.00,,CLR,0.07,VWS V14.01,2013-06-18 01:47:00,
2013-06-17 21:49:00,80.1,72.2,30.06,North,0,0.0,0.0,77,0.00,,CLR,0.07,VWS V14.01,2013-06-18 01:49:00,
2013-06-17 21:51:00,80.1,72.2,30.06,North,0,0.0,0.0,77,0.00,,CLR,0.07,VWS V14.01,2013-06-18 01:51:00,
2013-06-17 21:56:00,80.1,72.6,30.06,North,0,0.0,0.0,78,0.00,,CLR,0.07,VWS V14.01,2013-06-18 01:56:00,
2013-06-17 21:58:00,80.1,72.6,30.06,North,0,0.0,0.0,78,0.00,,CLR,0.07,VWS V14.01,2013-06-18 01:58:00,
2013-06-17 22:02:00,80.1,72.6,30.06,North,0,0.0,0.0,78,0.00,,CLR,0.07,VWS V14.01,2013-06-18 02:02:00,
2013-06-17 22:03:00,79.9,72.4,30.06,North,0,0.0,0.0,78,0.00,,SCT038,0.07,VWS V14.01,2013-06-18 02:03:00,
2013-06-17 22:04:00,79.9,72.4,30.06,North,0,0.0,0.0,78,0.00,,SCT038,0.07,VWS V14.01,2013-06-18 02:04:00,
2013-06-17 22:06:00,79.9,72.4,30.06,North,0,0.0,0.0,78,0.00,,SCT038,0.07,VWS V14.01,2013-06-18 02:06:00,
2013-06-17 22:08:00,79.7,71.9,30.06,North,0,0.0,0.0,77,0.00,,SCT038,0.07,VWS V14.01,2013-06-18 02:08:00,
2013-06-17 22:09:00,79.5,71.3,30.06,North,0,0.0,0.0,76,0.00,,SCT038,0.07,VWS V14.01,2013-06-18 02:09:00,
2013-06-17 22:12:00,79.2,69.4,30.06,North,0,0.0,0.0,72,0.01,,SCT038,0.08,VWS V14.01,2013-06-18 02:12:00,
2013-06-17 22:15:00,78.4,66.6,30.09,North,0,0.0,0.0,67,0.07,,SCT038,0.14,VWS V14.01,2013-06-18 02:15:00,
2013-06-17 22:17:00,78.1,63.5,30.09,North,0,0.0,0.0,61,0.09,,SCT038,0.16,VWS V14.01,2013-06-18 02:17:00,
2013-06-17 22:18:00,77.5,62.6,30.09,North,0,0.0,0.0,60,0.10,,SCT038,0.17,VWS V14.01,2013-06-18 02:18:00,
2013-06-17 22:20:00,77.2,63.2,30.09,North,0,0.0,0.0,62,0.10,,SCT038,0.17,VWS V14.01,2013-06-18 02:20:00,
2013-06-17 22:21:00,76.6,64.0,30.09,North,0,0.0,0.0,65,0.10,,SCT038,0.17,VWS V14.01,2013-06-18 02:21:00,
2013-06-17 22:23:00,76.3,64.5,30.09,North,0,0.0,0.0,67,0.10,,SCT038,0.17,VWS V14.01,2013-06-18 02:23:00,
2013-06-17 22:26:00,76.1,65.2,30.09,North,0,0.0,0.0,69,0.10,,SCT038,0.17,VWS V14.01,2013-06-18 02:26:00,
2013-06-17 22:28:00,76.1,65.6,30.06,North,0,0.0,0.0,70,0.10,,SCT038,0.17,VWS V14.01,2013-06-18 02:28:00,
2013-06-17 22:29:00,75.9,65.4,30.06,North,0,0.0,0.0,70,0.10,,SCT038,0.17,VWS V14.01,2013-06-18 02:29:00,
2013-06-17 22:31:00,76.1,66.4,30.06,North,0,0.0,0.0,72,0.10,,SCT038,0.17,VWS V14.01,2013-06-18 02:31:00,
2013-06-17 22:32:00,76.1,66.8,30.06,North,0,0.0,0.0,73,0.12,,SCT038,0.19,VWS V14.01,2013-06-18 02:32:00,
2013-06-17 22:34:00,76.1,66.8,30.06,North,0,0.0,0.0,73,0.12,,OVC038,0.19,VWS V14.01,2013-06-18 02:34:00,
2013-06-17 22:37:00,76.1,67.6,30.06,North,0,0.0,0.0,75,0.12,,OVC038,0.19,VWS V14.01,2013-06-18 02:37:00,
2013-06-17 22:39:00,75.9,67.4,30.06,North,0,0.0,0.0,75,0.12,,OVC038,0.19,VWS V14.01,2013-06-18 02:39:00,
2013-06-17 22:42:00,75.7,67.3,30.06,North,0,0.0,0.0,75,0.12,,OVC038,0.19,VWS V14.01,2013-06-18 02:42:00,
2013-06-17 22:43:00,75.7,67.3,30.06,North,0,0.0,0.0,75,0.12,,OVC038,0.19,VWS V14.01,2013-06-18 02:43:00,
2013-06-17 22:49:00,75.4,67.7,30.09,North,0,0.0,0.0,77,0.12,,,0.19,VWS V14.01,2013-06-18 02:49:00,
2013-06-17 22:50:00,75.4,67.7,30.09,North,0,0.0,0.0,77,0.12,,,0.19,VWS V14.01,2013-06-18 02:50:00,
2013-06-17 22:51:00,75.6,68.2,30.09,North,0,0.0,0.0,78,0.12,,,0.19,VWS V14.01,2013-06-18 02:51:00,
2013-06-17 22:55:00,75.7,68.8,30.09,North,0,0.0,0.0,79,0.12,,,0.19,VWS V14.01,2013-06-18 02:55:00,
2013-06-17 22:56:00,75.7,68.8,30.09,North,0,0.0,0.0,79,0.12,,,0.19,VWS V14.01,2013-06-18 02:56:00,
2013-06-17 22:57:00,75.9,68.9,30.09,North,0,0.0,0.0,79,0.12,,,0.19,VWS V14.01,2013-06-18 02:57:00,
2013-06-17 23:00:00,75.9,69.3,30.09,North,0,0.0,0.0,80,0.12,,,0.19,VWS V14.01,2013-06-18 03:00:00,
2013-06-17 23:03:00,75.9,69.3,30.09,North,0,0.0,0.0,80,0.12,,,0.19,VWS V14.01,2013-06-18 03:03:00,
2013-06-17 23:05:00,75.9,69.3,30.09,North,0,0.0,0.0,80,0.12,,OVC032,0.19,VWS V14.01,2013-06-18 03:05:00,
2013-06-17 23:08:00,76.1,69.5,30.09,North,0,0.0,0.0,80,0.12,,OVC032,0.19,VWS V14.01,2013-06-18 03:08:00,
2013-06-17 23:13:00,75.9,68.9,30.09,North,0,0.0,0.0,79,0.12,,OVC032,0.19,VWS V14.01,2013-06-18 03:13:00,
2013-06-17 23:15:00,76.1,69.1,30.09,North,0,0.0,0.0,79,0.09,,OVC032,0.19,VWS V14.01,2013-06-18 03:15:00,
2013-06-17 23:16:00,76.1,69.5,30.09,North,0,0.0,0.0,80,0.05,,OVC032,0.19,VWS V14.01,2013-06-18 03:16:00,
2013-06-17 23:19:00,76.3,69.7,30.09,North,0,0.0,0.0,80,0.01,,OVC032,0.19,VWS V14.01,2013-06-18 03:19:00,
2013-06-17 23:21:00,76.3,69.7,30.09,North,0,0.0,0.0,80,0.01,,OVC032,0.19,VWS V14.01,2013-06-18 03:21:00,
2013-06-17 23:22:00,76.3,69.7,30.09,North,0,0.0,0.0,80,0.01,,OVC032,0.19,VWS V14.01,2013-06-18 03:22:00,
2013-06-17 23:24:00,76.3,69.7,30.09,North,0,0.0,0.0,80,0.01,,OVC032,0.19,VWS V14.01,2013-06-18 03:24:00,
2013-06-17 23:26:00,76.3,69.7,30.09,North,0,0.0,0.0,80,0.01,,OVC032,0.19,VWS V14.01,2013-06-18 03:26:00,
2013-06-17 23:28:00,76.3,69.7,30.09,North,0,0.0,0.0,80,0.01,,OVC032,0.19,VWS V14.01,2013-06-18 03:28:00,
2013-06-17 23:29:00,76.5,69.8,30.09,North,0,0.0,0.0,80,0.01,,OVC032,0.19,VWS V14.01,2013-06-18 03:29:00,
2013-06-17 23:30:00,76.5,69.8,30.09,North,0,0.0,0.0,80,0.01,,OVC032,0.19,VWS V14.01,2013-06-18 03:30:00,
2013-06-17 23:32:00,76.5,69.8,30.09,North,0,0.0,0.0,80,0.01,,OVC032,0.19,VWS V14.01,2013-06-18 03:32:00,
2013-06-17 23:34:00,76.6,70.4,30.09,North,0,0.0,0.0,81,0.00,,BKN033,0.19,VWS V14.01,2013-06-18 03:34:00,
2013-06-17 23:36:00,76.6,70.4,30.09,North,0,0.0,0.0,81,0.00,,BKN033,0.19,VWS V14.01,2013-06-18 03:36:00,
2013-06-17 23:38:00,76.6,70.4,30.09,North,0,0.0,0.0,81,0.00,,BKN033,0.19,VWS V14.01,2013-06-18 03:38:00,
2013-06-17 23:40:00,76.6,70.7,30.09,North,0,0.0,0.0,82,0.00,,BKN033,0.19,VWS V14.01,2013-06-18 03:40:00,
2013-06-17 23:41:00,76.8,70.9,30.09,North,0,0.0,0.0,82,0.00,,BKN033,0.19,VWS V14.01,2013-06-18 03:41:00,
2013-06-17 23:43:00,76.8,70.9,30.09,North,0,0.0,0.0,82,0.00,,BKN033,0.19,VWS V14.01,2013-06-18 03:43:00,
2013-06-17 23:46:00,76.8,70.9,30.06,North,0,0.0,0.0,82,0.00,,BKN033,0.19,VWS V14.01,2013-06-18 03:46:00,
2013-06-17 23:47:00,76.8,70.9,30.06,North,0,0.0,0.0,82,0.00,,BKN033,0.19,VWS V14.01,2013-06-18 03:47:00,
2013-06-17 23:51:00,76.8,70.9,30.06,North,0,0.0,0.0,82,0.00,,BKN033,0.19,VWS V14.01,2013-06-18 03:51:00,
2013-06-17 23:53:00,76.8,70.9,30.06,North,0,0.0,0.0,82,0.00,,BKN033,0.19,VWS V14.01,2013-06-18 03:53:00,
2013-06-17 23:55:00,76.8,70.9,30.06,North,0,0.0,0.0,82,0.00,,BKN033,0.19,VWS V14.01,2013-06-18 03:55:00,
2013-06-17 23:56:00,76.8,70.9,30.06,North,0,0.0,0.0,82,0.00,,BKN033,0.19,VWS V14.01,2013-06-18 03:56:00,
2013-06-17 23:57:00,76.8,70.9,30.06,North,0,0.0,0.0,82,0.00,,BKN033,0.19,VWS V14.01,2013-06-18 03:57:00,